Time,TemperatureF,DewpointF,PressureIn,WindDirection,WindDirectionDegrees,WindSpeedMPH,WindSpeedGustMPH,Humidity,HourlyPrecipIn,Conditions,Clouds,dailyrainin,SoftwareType,DateUTC
2013-04-08 00:06:00,46.9,43.3,29.97,SSW,202,5.4,7.2,87,0.00,,SKC,0.00,VWS V14.01,2013-04-08 04:06:00,
2013-04-08 00:07:00,46.9,43.6,29.97,South,180,4.3,7.2,88,0.00,,SKC,0.00,VWS V14.01,2013-04-08 04:07:00,
2013-04-08 00:08:00,46.9,43.6,29.97,SSE,158,3.8,7.2,88,0.00,,SKC,0.00,VWS V14.01,2013-04-08 04:08:00,
2013-04-08 00:09:00,46.9,43.3,29.97,South,180,3.1,7.2,87,0.00,,SKC,0.00,VWS V14.01,2013-04-08 04:09:00,
2013-04-08 00:10:00,46.9,43.3,29.97,South,180,5.8,7.2,87,0.00,,SKC,0.00,VWS V14.01,2013-04-08 04:10:00,
2013-04-08 00:11:00,46.9,43.3,29.97,SW,225,4.3,7.2,87,0.00,,SKC,0.00,VWS V14.01,2013-04-08 04:11:00,
2013-04-08 00:12:00,46.9,43.3,29.97,SW,225,5.8,7.2,87,0.00,,SKC,0.00,VWS V14.01,2013-04-08 04:12:00,
2013-04-08 00:13:00,46.9,43.6,29.97,WSW,248,3.4,7.2,88,0.00,,SKC,0.00,VWS V14.01,2013-04-08 04:13:00,
2013-04-08 00:14:00,47.1,43.8,29.97,WSW,248,3.4,7.2,88,0.00,,SKC,0.00,VWS V14.01,2013-04-08 04:14:00,
2013-04-08 00:15:00,47.1,43.8,29.97,SSW,202,4.0,7.2,88,0.00,,SKC,0.00,VWS V14.01,2013-04-08 04:15:00,
2013-04-08 00:16:00,47.1,43.8,29.97,SSW,202,5.6,7.2,88,0.00,,SKC,0.00,VWS V14.01,2013-04-08 04:16:00,
2013-04-08 00:17:00,47.1,43.5,29.97,SW,225,3.8,7.2,87,0.00,,SKC,0.00,VWS V14.01,2013-04-08 04:17:00,
2013-04-08 00:18:00,47.1,43.5,29.97,WSW,248,3.4,7.2,87,0.00,,SKC,0.00,VWS V14.01,2013-04-08 04:18:00,
2013-04-08 00:19:00,47.1,43.5,29.97,SSW,202,3.6,7.2,87,0.00,,SKC,0.00,VWS V14.01,2013-04-08 04:19:00,
2013-04-08 00:20:00,47.1,43.5,29.97,SSW,202,3.6,7.2,87,0.00,,SKC,0.00,VWS V14.01,2013-04-08 04:20:00,
2013-04-08 00:21:00,47.1,43.5,29.97,SSW,202,3.4,7.2,87,0.00,,SKC,0.00,VWS V14.01,2013-04-08 04:21:00,
2013-04-08 00:22:00,47.1,43.8,29.97,SSW,202,3.4,7.2,88,0.00,,SKC,0.00,VWS V14.01,2013-04-08 04:22:00,
2013-04-08 00:23:00,47.1,43.8,29.97,SSW,202,3.4,7.2,88,0.00,,SKC,0.00,VWS V14.01,2013-04-08 04:23:00,
2013-04-08 00:24:00,47.1,43.8,29.97,SW,225,3.8,5.8,88,0.00,,SKC,0.00,VWS V14.01,2013-04-08 04:24:00,
2013-04-08 00:25:00,47.1,44.0,29.97,SW,225,3.8,5.8,89,0.00,,SKC,0.00,VWS V14.01,2013-04-08 04:25:00,
2013-04-08 00:26:00,47.1,44.0,29.97,SW,225,2.9,5.8,89,0.00,,SKC,0.00,VWS V14.01,2013-04-08 04:26:00,
2013-04-08 00:27:00,47.1,44.0,29.97,SW,225,2.9,5.8,89,0.00,,SKC,0.00,VWS V14.01,2013-04-08 04:27:00,
2013-04-08 00:28:00,47.3,44.2,29.97,SW,225,3.8,5.8,89,0.00,,SKC,0.00,VWS V14.01,2013-04-08 04:28:00,
2013-04-08 00:29:00,47.3,44.2,29.97,SSW,202,4.9,5.8,89,0.00,,SKC,0.00,VWS V14.01,2013-04-08 04:29:00,
2013-04-08 00:30:00,47.3,43.9,29.97,SSW,202,4.9,5.8,88,0.00,,SKC,0.00,VWS V14.01,2013-04-08 04:30:00,
2013-04-08 00:31:00,47.3,43.9,29.97,South,180,3.8,5.8,88,0.00,,SKC,0.00,VWS V14.01,2013-04-08 04:31:00,
2013-04-08 00:32:00,47.3,43.9,29.97,South,180,5.8,5.8,88,0.00,,SKC,0.00,VWS V14.01,2013-04-08 04:32:00,
2013-04-08 00:33:00,47.3,44.2,29.97,South,180,5.8,5.8,89,0.00,,SKC,0.00,VWS V14.01,2013-04-08 04:33:00,
2013-04-08 00:34:00,47.3,43.9,29.97,South,180,5.8,5.8,88,0.00,,SKC,0.00,VWS V14.01,2013-04-08 04:34:00,
2013-04-08 00:35:00,47.3,43.9,29.97,SW,225,6.3,6.3,88,0.00,,SKC,0.00,VWS V14.01,2013-04-08 04:35:00,
2013-04-08 00:36:00,47.3,44.2,29.97,SW,225,6.3,6.3,89,0.00,,SKC,0.00,VWS V14.01,2013-04-08 04:36:00,
2013-04-08 00:37:00,47.3,43.9,29.97,SW,225,6.3,6.3,88,0.00,,SKC,0.00,VWS V14.01,2013-04-08 04:37:00,
2013-04-08 00:38:00,47.3,43.9,29.97,SW,225,6.3,6.3,88,0.00,,SKC,0.00,VWS V14.01,2013-04-08 04:38:00,
2013-04-08 00:39:00,47.3,43.6,29.97,SSW,202,4.3,6.3,87,0.00,,SKC,0.00,VWS V14.01,2013-04-08 04:39:00,
2013-04-08 00:40:00,47.3,43.6,29.97,SSW,202,4.3,6.3,87,0.00,,SKC,0.00,VWS V14.01,2013-04-08 04:40:00,
2013-04-08 00:41:00,47.3,43.9,29.97,SSW,202,12.5,12.5,88,0.00,,SKC,0.00,VWS V14.01,2013-04-08 04:41:00,
2013-04-08 00:42:00,47.3,43.9,29.97,SSW,202,12.5,12.5,88,0.00,,SKC,0.00,VWS V14.01,2013-04-08 04:42:00,
2013-04-08 00:43:00,47.3,43.9,29.97,SSW,202,12.5,12.5,88,0.00,,SKC,0.00,VWS V14.01,2013-04-08 04:43:00,
2013-04-08 00:44:00,47.3,43.9,29.97,SW,225,3.8,12.5,88,0.00,,SKC,0.00,VWS V14.01,2013-04-08 04:44:00,
2013-04-08 00:45:00,47.3,43.9,29.97,SW,225,3.8,12.5,88,0.00,,SKC,0.00,VWS V14.01,2013-04-08 04:45:00,
2013-04-08 00:46:00,47.3,43.9,29.97,ESE,112,3.4,12.5,88,0.00,,SKC,0.00,VWS V14.01,2013-04-08 04:46:00,
2013-04-08 01:08:00,47.5,44.4,29.97,South,180,2.9,12.5,89,0.00,,SKC,0.00,VWS V14.01,2013-04-08 05:08:00,
2013-04-08 01:09:00,47.3,44.2,29.97,South,180,2.9,12.5,89,0.00,,SKC,0.00,VWS V14.01,2013-04-08 05:09:00,
2013-04-08 01:10:00,47.5,44.1,29.97,SSW,202,4.9,12.5,88,0.00,,SKC,0.00,VWS V14.01,2013-04-08 05:10:00,
2013-04-08 01:11:00,47.3,44.2,29.97,SSW,202,4.9,12.5,89,0.00,,SKC,0.00,VWS V14.01,2013-04-08 05:11:00,
2013-04-08 01:12:00,47.3,44.2,29.97,WSW,248,4.9,12.5,89,0.00,,SKC,0.00,VWS V14.01,2013-04-08 05:12:00,
2013-04-08 01:13:00,47.3,44.2,29.94,WSW,248,4.9,12.5,89,0.00,,SKC,0.00,VWS V14.01,2013-04-08 05:13:00,
2013-04-08 01:14:00,47.3,44.2,29.94,WSW,248,4.9,12.5,89,0.00,,SKC,0.00,VWS V14.01,2013-04-08 05:14:00,
2013-04-08 01:15:00,47.3,44.2,29.94,SSW,202,3.6,12.5,89,0.00,,SKC,0.00,VWS V14.01,2013-04-08 05:15:00,
2013-04-08 01:16:00,47.5,44.4,29.94,WSW,248,2.9,12.5,89,0.00,,SKC,0.00,VWS V14.01,2013-04-08 05:16:00,
2013-04-08 01:17:00,47.5,44.4,29.94,East,90,4.3,12.5,89,0.00,,SKC,0.00,VWS V14.01,2013-04-08 05:17:00,
2013-04-08 01:18:00,47.5,44.4,29.94,ESE,112,3.1,12.5,89,0.00,,SKC,0.00,VWS V14.01,2013-04-08 05:18:00,
2013-04-08 01:19:00,47.5,44.4,29.94,ESE,112,3.1,12.5,89,0.00,,SKC,0.00,VWS V14.01,2013-04-08 05:19:00,
2013-04-08 01:20:00,47.5,44.4,29.94,ESE,112,3.1,12.5,89,0.00,,SKC,0.00,VWS V14.01,2013-04-08 05:20:00,
2013-04-08 01:21:00,47.5,44.4,29.94,SW,225,3.1,12.5,89,0.00,,SKC,0.00,VWS V14.01,2013-04-08 05:21:00,
2013-04-08 01:22:00,47.5,44.4,29.94,East,90,4.9,12.5,89,0.00,,SKC,0.00,VWS V14.01,2013-04-08 05:22:00,
2013-04-08 01:23:00,47.5,44.4,29.94,East,90,4.9,12.5,89,0.00,,SKC,0.00,VWS V14.01,2013-04-08 05:23:00,
2013-04-08 01:24:00,47.5,44.4,29.94,South,180,3.1,4.9,89,0.00,,SKC,0.00,VWS V14.01,2013-04-08 05:24:00,
2013-04-08 01:25:00,47.5,44.4,29.94,South,180,3.1,4.9,89,0.00,,SKC,0.00,VWS V14.01,2013-04-08 05:25:00,
2013-04-08 01:26:00,47.5,44.4,29.94,SSW,202,3.6,4.9,89,0.00,,SKC,0.00,VWS V14.01,2013-04-08 05:26:00,
2013-04-08 01:27:00,47.5,44.4,29.94,SSW,202,3.6,4.9,89,0.00,,SKC,0.00,VWS V14.01,2013-04-08 05:27:00,
2013-04-08 01:28:00,47.5,44.4,29.94,SSW,202,3.6,4.9,89,0.00,,SKC,0.00,VWS V14.01,2013-04-08 05:28:00,
2013-04-08 01:29:00,47.5,44.4,29.94,SSW,202,3.6,4.9,89,0.00,,SKC,0.00,VWS V14.01,2013-04-08 05:29:00,
2013-04-08 01:30:00,47.5,44.7,29.94,SSE,158,2.5,4.9,90,0.00,,SKC,0.00,VWS V14.01,2013-04-08 05:30:00,
2013-04-08 01:31:00,47.5,44.7,29.94,SSE,158,2.5,4.9,90,0.00,,SKC,0.00,VWS V14.01,2013-04-08 05:31:00,
2013-04-08 01:32:00,47.5,44.7,29.94,West,270,2.9,4.9,90,0.00,,SKC,0.00,VWS V14.01,2013-04-08 05:32:00,
2013-04-08 01:33:00,47.5,44.7,29.94,West,270,2.9,4.9,90,0.00,,SKC,0.00,VWS V14.01,2013-04-08 05:33:00,
2013-04-08 01:34:00,47.5,44.7,29.94,SSW,202,3.1,4.9,90,0.00,,SKC,0.00,VWS V14.01,2013-04-08 05:34:00,
2013-04-08 01:35:00,47.5,44.7,29.94,SSW,202,3.1,4.9,90,0.00,,SKC,0.00,VWS V14.01,2013-04-08 05:35:00,
2013-04-08 01:36:00,47.5,44.7,29.94,South,180,4.9,4.9,90,0.00,,SKC,0.00,VWS V14.01,2013-04-08 05:36:00,
2013-04-08 01:37:00,47.5,44.7,29.94,South,180,4.9,4.9,90,0.00,,SKC,0.00,VWS V14.01,2013-04-08 05:37:00,
2013-04-08 01:38:00,47.5,44.7,29.94,South,180,4.9,4.9,90,0.00,,SKC,0.00,VWS V14.01,2013-04-08 05:38:00,
2013-04-08 01:39:00,47.5,44.7,29.94,South,180,4.9,4.9,90,0.00,,SKC,0.00,VWS V14.01,2013-04-08 05:39:00,
2013-04-08 01:40:00,47.5,44.7,29.94,South,180,2.9,4.9,90,0.00,,SKC,0.00,VWS V14.01,2013-04-08 05:40:00,
2013-04-08 01:41:00,47.5,44.7,29.94,SW,225,2.7,4.9,90,0.00,,SKC,0.00,VWS V14.01,2013-04-08 05:41:00,
2013-04-08 01:42:00,47.5,44.7,29.94,South,180,3.4,4.9,90,0.00,,SKC,0.00,VWS V14.01,2013-04-08 05:42:00,
2013-04-08 01:43:00,47.5,44.7,29.94,SW,225,4.9,4.9,90,0.00,,SKC,0.00,VWS V14.01,2013-04-08 05:43:00,
2013-04-08 01:44:00,47.5,44.7,29.94,South,180,4.3,4.9,90,0.00,,SKC,0.00,VWS V14.01,2013-04-08 05:44:00,
2013-04-08 01:45:00,47.5,44.7,29.94,South,180,3.6,4.9,90,0.00,,SKC,0.00,VWS V14.01,2013-04-08 05:45:00,
2013-04-08 01:52:00,47.3,44.5,29.94,SSE,158,5.8,5.8,90,0.00,,SKC,0.00,VWS V14.01,2013-04-08 05:52:00,
2013-04-08 01:53:00,47.3,44.5,29.94,SSE,158,5.8,5.8,90,0.00,,SKC,0.00,VWS V14.01,2013-04-08 05:53:00,
2013-04-08 01:54:00,47.3,44.5,29.94,SSE,158,5.8,5.8,90,0.00,,SKC,0.00,VWS V14.01,2013-04-08 05:54:00,
2013-04-08 01:55:00,47.3,44.2,29.94,SSW,202,1.6,5.8,89,0.00,,SKC,0.00,VWS V14.01,2013-04-08 05:55:00,
2013-04-08 01:56:00,47.3,44.2,29.94,SSW,202,1.6,5.8,89,0.00,,SKC,0.00,VWS V14.01,2013-04-08 05:56:00,
2013-04-08 01:57:00,47.3,44.5,29.94,SSW,202,1.6,5.8,90,0.00,,SKC,0.00,VWS V14.01,2013-04-08 05:57:00,
2013-04-08 01:58:00,47.3,44.5,29.94,SSE,158,5.8,5.8,90,0.00,,SKC,0.00,VWS V14.01,2013-04-08 05:58:00,
2013-04-08 01:59:00,47.3,44.5,29.94,SW,225,5.8,5.8,90,0.00,,SKC,0.00,VWS V14.01,2013-04-08 05:59:00,
2013-04-08 02:00:00,47.3,44.5,29.94,South,180,8.1,8.1,90,0.00,,SKC,0.00,VWS V14.01,2013-04-08 06:00:00,
2013-04-08 02:01:00,47.3,44.5,29.94,South,180,8.1,8.1,90,0.00,,SKC,0.00,VWS V14.01,2013-04-08 06:01:00,
2013-04-08 02:02:00,47.3,44.5,29.94,SW,225,4.0,8.1,90,0.00,,SKC,0.00,VWS V14.01,2013-04-08 06:02:00,
2013-04-08 02:03:00,47.3,44.5,29.94,SW,225,4.0,8.1,90,0.00,,SKC,0.00,VWS V14.01,2013-04-08 06:03:00,
2013-04-08 02:04:00,47.3,44.5,29.94,SW,225,4.0,8.1,90,0.00,,SKC,0.00,VWS V14.01,2013-04-08 06:04:00,
2013-04-08 02:05:00,47.3,44.5,29.94,SW,225,3.1,8.1,90,0.00,,SKC,0.00,VWS V14.01,2013-04-08 06:05:00,
2013-04-08 02:06:00,47.3,44.5,29.94,SW,225,3.1,8.1,90,0.00,,SKC,0.00,VWS V14.01,2013-04-08 06:06:00,
2013-04-08 02:07:00,47.3,44.5,29.94,South,180,3.1,8.1,90,0.00,,SKC,0.00,VWS V14.01,2013-04-08 06:07:00,
2013-04-08 02:08:00,47.3,44.5,29.94,SW,225,3.4,8.1,90,0.00,,SKC,0.00,VWS V14.01,2013-04-08 06:08:00,
2013-04-08 02:09:00,47.3,44.5,29.94,SSW,202,2.9,8.1,90,0.00,,SKC,0.00,VWS V14.01,2013-04-08 06:09:00,
2013-04-08 02:10:00,47.3,44.5,29.94,SSW,202,2.9,8.1,90,0.00,,SKC,0.00,VWS V14.01,2013-04-08 06:10:00,
2013-04-08 02:11:00,47.3,44.5,29.94,South,180,3.1,8.1,90,0.00,,SKC,0.00,VWS V14.01,2013-04-08 06:11:00,
2013-04-08 02:12:00,47.3,44.5,29.94,SW,225,3.1,8.1,90,0.00,,SKC,0.00,VWS V14.01,2013-04-08 06:12:00,
2013-04-08 02:13:00,47.3,44.5,29.94,South,180,3.1,8.1,90,0.00,,SKC,0.00,VWS V14.01,2013-04-08 06:13:00,
2013-04-08 02:14:00,47.3,44.5,29.94,SSW,202,2.9,8.1,90,0.00,,SKC,0.00,VWS V14.01,2013-04-08 06:14:00,
2013-04-08 02:15:00,47.3,44.2,29.94,SW,225,3.6,8.1,89,0.00,,SKC,0.00,VWS V14.01,2013-04-08 06:15:00,
2013-04-08 02:16:00,47.3,44.2,29.94,SW,225,3.6,8.1,89,0.00,,SKC,0.00,VWS V14.01,2013-04-08 06:16:00,
2013-04-08 02:17:00,47.3,44.2,29.94,SW,225,2.7,8.1,89,0.00,,SKC,0.00,VWS V14.01,2013-04-08 06:17:00,
2013-04-08 02:18:00,47.3,44.2,29.94,SW,225,2.7,8.1,89,0.00,,SKC,0.00,VWS V14.01,2013-04-08 06:18:00,
2013-04-08 02:19:00,47.3,44.2,29.94,SW,225,2.7,8.1,89,0.00,,SKC,0.00,VWS V14.01,2013-04-08 06:19:00,
2013-04-08 02:20:00,47.1,44.0,29.94,East,90,2.7,8.1,89,0.00,,SKC,0.00,VWS V14.01,2013-04-08 06:20:00,
2013-04-08 02:21:00,47.1,44.0,29.94,SW,225,1.1,4.0,89,0.00,,SKC,0.00,VWS V14.01,2013-04-08 06:21:00,
2013-04-08 02:22:00,47.1,44.0,29.94,SW,225,1.1,4.0,89,0.00,,SKC,0.00,VWS V14.01,2013-04-08 06:22:00,
2013-04-08 02:23:00,47.1,44.3,29.94,SW,225,1.1,4.0,90,0.00,,SKC,0.00,VWS V14.01,2013-04-08 06:23:00,
2013-04-08 02:24:00,47.1,44.3,29.94,SW,225,1.1,3.6,90,0.00,,SKC,0.00,VWS V14.01,2013-04-08 06:24:00,
2013-04-08 02:25:00,47.1,44.0,29.94,WSW,248,4.3,4.3,89,0.00,,SKC,0.00,VWS V14.01,2013-04-08 06:25:00,
2013-04-08 02:26:00,47.1,44.0,29.94,ESE,112,3.4,4.3,89,0.00,,SKC,0.00,VWS V14.01,2013-04-08 06:26:00,
2013-04-08 02:27:00,47.1,44.0,29.94,ESE,112,3.4,4.3,89,0.00,,SKC,0.00,VWS V14.01,2013-04-08 06:27:00,
2013-04-08 02:28:00,47.1,44.0,29.94,WSW,248,3.4,4.3,89,0.00,,SKC,0.00,VWS V14.01,2013-04-08 06:28:00,
2013-04-08 02:29:00,47.1,44.0,29.94,WSW,248,3.4,4.3,89,0.00,,SKC,0.00,VWS V14.01,2013-04-08 06:29:00,
2013-04-08 02:30:00,47.1,44.0,29.94,SW,225,3.8,4.3,89,0.00,,SKC,0.00,VWS V14.01,2013-04-08 06:30:00,
2013-04-08 02:31:00,47.1,44.0,29.94,NW,315,4.0,4.3,89,0.00,,SKC,0.00,VWS V14.01,2013-04-08 06:31:00,
2013-04-08 02:32:00,47.1,44.0,29.94,NW,315,4.0,4.3,89,0.00,,SKC,0.00,VWS V14.01,2013-04-08 06:32:00,
2013-04-08 02:35:00,47.1,44.0,29.94,NW,315,2.7,4.3,89,0.00,,SKC,0.00,VWS V14.01,2013-04-08 06:35:00,
2013-04-08 02:36:00,47.1,44.0,29.94,NW,315,2.7,4.3,89,0.00,,SKC,0.00,VWS V14.01,2013-04-08 06:36:00,
2013-04-08 02:37:00,47.1,44.0,29.94,NW,315,2.7,4.3,89,0.00,,SKC,0.00,VWS V14.01,2013-04-08 06:37:00,
2013-04-08 02:38:00,47.1,44.0,29.94,NW,315,2.7,4.3,89,0.00,,SKC,0.00,VWS V14.01,2013-04-08 06:38:00,
2013-04-08 02:39:00,47.1,44.0,29.94,SW,225,3.1,4.3,89,0.00,,SKC,0.00,VWS V14.01,2013-04-08 06:39:00,
2013-04-08 02:40:00,47.1,44.0,29.94,SW,225,3.1,4.3,89,0.00,,SKC,0.00,VWS V14.01,2013-04-08 06:40:00,
2013-04-08 02:41:00,47.1,44.0,29.94,South,180,5.4,5.4,89,0.00,,SKC,0.00,VWS V14.01,2013-04-08 06:41:00,
2013-04-08 02:42:00,47.1,44.0,29.94,South,180,5.4,5.4,89,0.00,,SKC,0.00,VWS V14.01,2013-04-08 06:42:00,
2013-04-08 02:43:00,47.1,44.0,29.94,South,180,5.4,5.4,89,0.00,,SKC,0.00,VWS V14.01,2013-04-08 06:43:00,
2013-04-08 02:44:00,47.1,44.0,29.94,South,180,5.4,5.4,89,0.00,,SKC,0.00,VWS V14.01,2013-04-08 06:44:00,
2013-04-08 02:45:00,46.9,43.9,29.94,South,180,5.4,5.4,89,0.00,,SKC,0.00,VWS V14.01,2013-04-08 06:45:00,
2013-04-08 02:46:00,46.9,43.9,29.94,West,270,4.9,5.4,89,0.00,,SKC,0.00,VWS V14.01,2013-04-08 06:46:00,
2013-04-08 02:47:00,46.9,43.9,29.94,West,270,4.9,5.4,89,0.00,,SKC,0.00,VWS V14.01,2013-04-08 06:47:00,
2013-04-08 02:48:00,46.9,43.9,29.94,West,270,1.1,5.4,89,0.00,,SKC,0.00,VWS V14.01,2013-04-08 06:48:00,
2013-04-08 02:49:00,46.9,43.9,29.94,West,270,1.1,5.4,89,0.00,,SKC,0.00,VWS V14.01,2013-04-08 06:49:00,
2013-04-08 02:50:00,46.9,43.9,29.94,West,270,1.1,5.4,89,0.00,,SKC,0.00,VWS V14.01,2013-04-08 06:50:00,
2013-04-08 02:51:00,46.9,43.9,29.94,WSW,248,3.4,5.4,89,0.00,,SKC,0.00,VWS V14.01,2013-04-08 06:51:00,
2013-04-08 02:52:00,46.9,43.9,29.94,WSW,248,3.4,5.4,89,0.00,,SKC,0.00,VWS V14.01,2013-04-08 06:52:00,
2013-04-08 02:53:00,46.9,43.9,29.94,WSW,248,3.4,5.4,89,0.00,,SKC,0.00,VWS V14.01,2013-04-08 06:53:00,
2013-04-08 02:54:00,46.9,43.9,29.94,WSW,248,3.4,5.4,89,0.00,,SKC,0.00,VWS V14.01,2013-04-08 06:54:00,
2013-04-08 02:55:00,46.9,43.9,29.94,SW,225,2.9,5.4,89,0.00,,SKC,0.00,VWS V14.01,2013-04-08 06:55:00,
2013-04-08 02:56:00,46.9,43.9,29.94,WSW,248,4.5,5.4,89,0.00,,SKC,0.00,VWS V14.01,2013-04-08 06:56:00,
2013-04-08 02:57:00,46.8,43.4,29.94,South,180,3.8,5.4,88,0.00,,SKC,0.00,VWS V14.01,2013-04-08 06:57:00,
2013-04-08 02:58:00,46.8,43.4,29.94,South,180,3.8,5.4,88,0.00,,SKC,0.00,VWS V14.01,2013-04-08 06:58:00,
2013-04-08 02:59:00,46.8,43.4,29.94,South,180,3.8,5.4,88,0.00,,SKC,0.00,VWS V14.01,2013-04-08 06:59:00,
2013-04-08 03:00:00,46.8,43.4,29.94,South,180,3.8,5.4,88,0.00,,SKC,0.00,VWS V14.01,2013-04-08 07:00:00,
2013-04-08 03:01:00,46.8,43.4,29.94,South,180,3.8,5.4,88,0.00,,SKC,0.00,VWS V14.01,2013-04-08 07:01:00,
2013-04-08 03:02:00,46.8,43.4,29.94,South,180,3.8,5.4,88,0.00,,SKC,0.00,VWS V14.01,2013-04-08 07:02:00,
2013-04-08 03:03:00,46.8,43.4,29.94,SW,225,2.7,5.4,88,0.00,,SKC,0.00,VWS V14.01,2013-04-08 07:03:00,
2013-04-08 03:04:00,46.8,43.7,29.94,WSW,248,3.4,5.4,89,0.00,,SKC,0.00,VWS V14.01,2013-04-08 07:04:00,
2013-04-08 03:05:00,46.6,43.5,29.94,WSW,248,3.4,4.9,89,0.00,,SKC,0.00,VWS V14.01,2013-04-08 07:05:00,
2013-04-08 03:06:00,46.6,43.5,29.94,WSW,248,3.4,4.9,89,0.00,,SKC,0.00,VWS V14.01,2013-04-08 07:06:00,
2013-04-08 03:07:00,46.6,43.5,29.94,WSW,248,3.4,4.5,89,0.00,,SKC,0.00,VWS V14.01,2013-04-08 07:07:00,
2013-04-08 03:08:00,46.6,43.5,29.94,WSW,248,3.4,4.5,89,0.00,,SKC,0.00,VWS V14.01,2013-04-08 07:08:00,
2013-04-08 03:09:00,46.6,43.5,29.94,SW,225,2.7,4.5,89,0.00,,SKC,0.00,VWS V14.01,2013-04-08 07:09:00,
2013-04-08 03:10:00,46.6,43.2,29.94,SW,225,2.7,4.5,88,0.00,,SKC,0.00,VWS V14.01,2013-04-08 07:10:00,
2013-04-08 03:11:00,46.6,43.5,29.94,SW,225,2.7,4.5,89,0.00,,SKC,0.00,VWS V14.01,2013-04-08 07:11:00,
2013-04-08 03:12:00,46.6,43.5,29.94,WSW,248,3.4,4.5,89,0.00,,SKC,0.00,VWS V14.01,2013-04-08 07:12:00,
2013-04-08 03:13:00,46.6,43.2,29.94,WSW,248,4.0,4.5,88,0.00,,SKC,0.00,VWS V14.01,2013-04-08 07:13:00,
2013-04-08 03:14:00,46.6,43.5,29.94,West,270,3.8,4.5,89,0.00,,SKC,0.00,VWS V14.01,2013-04-08 07:14:00,
2013-04-08 03:15:00,46.6,43.5,29.94,West,270,3.8,4.5,89,0.00,,SKC,0.00,VWS V14.01,2013-04-08 07:15:00,
2013-04-08 03:38:00,45.9,42.5,29.94,SW,225,1.6,4.0,88,0.00,,SKC,0.00,VWS V14.01,2013-04-08 07:38:00,
2013-04-08 03:39:00,45.9,42.5,29.94,SW,225,1.6,4.0,88,0.00,,SKC,0.00,VWS V14.01,2013-04-08 07:39:00,
2013-04-08 03:40:00,45.9,42.5,29.94,SW,225,1.6,4.0,88,0.00,,SKC,0.00,VWS V14.01,2013-04-08 07:40:00,
2013-04-08 03:41:00,45.7,42.3,29.94,SW,225,1.6,4.0,88,0.00,,SKC,0.00,VWS V14.01,2013-04-08 07:41:00,
2013-04-08 03:42:00,45.7,42.3,29.94,SW,225,0.0,4.0,88,0.00,,SKC,0.00,VWS V14.01,2013-04-08 07:42:00,
2013-04-08 03:43:00,45.5,41.9,29.94,SW,225,0.0,4.0,87,0.00,,SKC,0.00,VWS V14.01,2013-04-08 07:43:00,
2013-04-08 03:44:00,45.5,41.9,29.94,SW,225,0.0,4.0,87,0.00,,SKC,0.00,VWS V14.01,2013-04-08 07:44:00,
2013-04-08 03:45:00,45.5,41.9,29.94,SW,225,0.0,4.0,87,0.00,,SKC,0.00,VWS V14.01,2013-04-08 07:45:00,
2013-04-08 03:46:00,45.5,41.9,29.94,SW,225,0.0,4.0,87,0.00,,SKC,0.00,VWS V14.01,2013-04-08 07:46:00,
2013-04-08 03:47:00,45.5,41.9,29.94,WSW,248,0.0,4.0,87,0.00,,SKC,0.00,VWS V14.01,2013-04-08 07:47:00,
2013-04-08 03:48:00,45.3,41.7,29.94,West,270,0.0,4.0,87,0.00,,SKC,0.00,VWS V14.01,2013-04-08 07:48:00,
2013-04-08 03:49:00,45.3,42.0,29.94,West,270,0.0,4.0,88,0.00,,SKC,0.00,VWS V14.01,2013-04-08 07:49:00,
2013-04-08 03:50:00,45.3,42.0,29.94,West,270,0.0,4.0,88,0.00,,SKC,0.00,VWS V14.01,2013-04-08 07:50:00,
2013-04-08 03:51:00,45.3,41.7,29.94,South,180,0.0,4.0,87,0.00,,SKC,0.00,VWS V14.01,2013-04-08 07:51:00,
2013-04-08 03:52:00,45.3,41.7,29.94,West,270,2.0,4.0,87,0.00,,SKC,0.00,VWS V14.01,2013-04-08 07:52:00,
2013-04-08 03:53:00,45.3,41.7,29.94,West,270,2.0,4.0,87,0.00,,SKC,0.00,VWS V14.01,2013-04-08 07:53:00,
2013-04-08 03:54:00,45.3,42.0,29.94,WSW,248,1.6,4.0,88,0.00,,SKC,0.00,VWS V14.01,2013-04-08 07:54:00,
2013-04-08 03:55:00,45.3,42.0,29.94,WSW,248,2.7,3.8,88,0.00,,SKC,0.00,VWS V14.01,2013-04-08 07:55:00,
2013-04-08 03:56:00,45.3,42.0,29.94,WSW,248,2.7,3.8,88,0.00,,SKC,0.00,VWS V14.01,2013-04-08 07:56:00,
2013-04-08 03:57:00,45.3,42.0,29.94,SW,225,2.5,2.7,88,0.00,,SKC,0.00,VWS V14.01,2013-04-08 07:57:00,
2013-04-08 03:58:00,45.3,42.0,29.94,SW,225,2.5,2.7,88,0.00,,SKC,0.00,VWS V14.01,2013-04-08 07:58:00,
2013-04-08 03:59:00,45.5,42.2,29.94,West,270,2.9,2.9,88,0.00,,SKC,0.00,VWS V14.01,2013-04-08 07:59:00,
2013-04-08 04:00:00,45.5,42.2,29.94,West,270,2.9,2.9,88,0.00,,SKC,0.00,VWS V14.01,2013-04-08 08:00:00,
2013-04-08 04:01:00,45.5,42.5,29.94,West,270,2.9,2.9,89,0.00,,SKC,0.00,VWS V14.01,2013-04-08 08:01:00,
2013-04-08 04:02:00,45.5,42.5,29.94,WSW,248,2.5,2.9,89,0.00,,SKC,0.00,VWS V14.01,2013-04-08 08:02:00,
2013-04-08 04:03:00,45.5,42.5,29.94,West,270,2.5,2.9,89,0.00,,SKC,0.00,VWS V14.01,2013-04-08 08:03:00,
2013-04-08 04:04:00,45.5,42.5,29.94,West,270,2.5,2.9,89,0.00,,SKC,0.00,VWS V14.01,2013-04-08 08:04:00,
2013-04-08 04:05:00,45.7,42.6,29.94,West,270,2.5,2.9,89,0.00,,SKC,0.00,VWS V14.01,2013-04-08 08:05:00,
2013-04-08 04:06:00,45.7,42.9,29.94,WSW,248,2.7,2.9,90,0.00,,SKC,0.00,VWS V14.01,2013-04-08 08:06:00,
2013-04-08 04:07:00,45.7,42.9,29.94,WSW,248,2.7,2.9,90,0.00,,SKC,0.00,VWS V14.01,2013-04-08 08:07:00,
2013-04-08 04:08:00,45.7,42.9,29.94,SW,225,2.7,2.9,90,0.00,,SKC,0.00,VWS V14.01,2013-04-08 08:08:00,
2013-04-08 04:09:00,45.7,42.9,29.94,SW,225,2.7,2.9,90,0.00,,SKC,0.00,VWS V14.01,2013-04-08 08:09:00,
2013-04-08 04:10:00,45.7,42.9,29.94,SW,225,2.7,2.9,90,0.00,,SKC,0.00,VWS V14.01,2013-04-08 08:10:00,
2013-04-08 04:11:00,45.5,42.5,29.94,SW,225,2.7,2.9,89,0.00,,SKC,0.00,VWS V14.01,2013-04-08 08:11:00,
2013-04-08 04:12:00,45.5,42.5,29.94,WSW,248,2.9,2.9,89,0.00,,SKC,0.00,VWS V14.01,2013-04-08 08:12:00,
2013-04-08 04:13:00,45.5,42.5,29.94,WSW,248,2.9,2.9,89,0.00,,SKC,0.00,VWS V14.01,2013-04-08 08:13:00,
2013-04-08 04:14:00,45.5,42.5,29.94,WSW,248,2.5,2.9,89,0.00,,SKC,0.00,VWS V14.01,2013-04-08 08:14:00,
2013-04-08 04:15:00,45.5,42.5,29.94,WSW,248,2.5,2.9,89,0.00,,SKC,0.00,VWS V14.01,2013-04-08 08:15:00,
2013-04-08 04:16:00,45.5,42.5,29.94,WSW,248,2.5,2.9,89,0.00,,SKC,0.00,VWS V14.01,2013-04-08 08:16:00,
2013-04-08 04:17:00,45.5,42.5,29.94,SW,225,3.1,3.1,89,0.00,,SKC,0.00,VWS V14.01,2013-04-08 08:17:00,
2013-04-08 04:18:00,45.5,42.5,29.94,SW,225,3.1,3.1,89,0.00,,SKC,0.00,VWS V14.01,2013-04-08 08:18:00,
2013-04-08 04:19:00,45.5,42.5,29.94,SW,225,2.5,3.1,89,0.00,,SKC,0.00,VWS V14.01,2013-04-08 08:19:00,
2013-04-08 04:20:00,45.5,42.5,29.94,SW,225,2.5,3.1,89,0.00,,SKC,0.00,VWS V14.01,2013-04-08 08:20:00,
2013-04-08 04:21:00,45.5,42.5,29.94,SW,225,2.5,3.1,89,0.00,,SKC,0.00,VWS V14.01,2013-04-08 08:21:00,
2013-04-08 04:22:00,45.5,42.5,29.94,SW,225,2.9,3.1,89,0.00,,SKC,0.00,VWS V14.01,2013-04-08 08:22:00,
2013-04-08 04:23:00,45.5,42.5,29.94,SW,225,2.9,3.1,89,0.00,,SKC,0.00,VWS V14.01,2013-04-08 08:23:00,
2013-04-08 04:24:00,45.5,42.5,29.94,SW,225,2.9,3.1,89,0.00,,SKC,0.00,VWS V14.01,2013-04-08 08:24:00,
2013-04-08 04:25:00,45.3,42.3,29.94,SW,225,2.0,3.1,89,0.00,,SKC,0.00,VWS V14.01,2013-04-08 08:25:00,
2013-04-08 04:26:00,45.3,42.3,29.94,SW,225,2.0,3.1,89,0.00,,SKC,0.00,VWS V14.01,2013-04-08 08:26:00,
2013-04-08 04:27:00,45.3,42.3,29.94,WSW,248,2.9,3.1,89,0.00,,SKC,0.00,VWS V14.01,2013-04-08 08:27:00,
2013-04-08 04:28:00,45.3,42.3,29.94,SW,225,2.5,3.1,89,0.00,,SKC,0.00,VWS V14.01,2013-04-08 08:28:00,
2013-04-08 04:29:00,45.3,42.3,29.94,SW,225,2.5,3.1,89,0.00,,SKC,0.00,VWS V14.01,2013-04-08 08:29:00,
2013-04-08 04:30:00,45.3,42.3,29.94,SW,225,2.5,3.1,89,0.00,,SKC,0.00,VWS V14.01,2013-04-08 08:30:00,
2013-04-08 04:31:00,45.1,42.1,29.94,SW,225,2.7,3.1,89,0.00,,SKC,0.00,VWS V14.01,2013-04-08 08:31:00,
2013-04-08 04:32:00,45.1,42.1,29.94,West,270,2.5,3.1,89,0.00,,SKC,0.00,VWS V14.01,2013-04-08 08:32:00,
2013-04-08 04:33:00,45.1,42.1,29.94,SW,225,3.1,3.1,89,0.00,,SKC,0.00,VWS V14.01,2013-04-08 08:33:00,
2013-04-08 04:34:00,45.1,42.1,29.94,SW,225,3.8,3.8,89,0.00,,SKC,0.00,VWS V14.01,2013-04-08 08:34:00,
2013-04-08 04:35:00,45.1,42.1,29.94,SW,225,3.8,3.8,89,0.00,,SKC,0.00,VWS V14.01,2013-04-08 08:35:00,
2013-04-08 04:36:00,45.1,42.1,29.94,SW,225,3.8,3.8,89,0.00,,SKC,0.00,VWS V14.01,2013-04-08 08:36:00,
2013-04-08 04:37:00,45.1,42.4,29.94,SW,225,3.8,3.8,90,0.00,,SKC,0.00,VWS V14.01,2013-04-08 08:37:00,
2013-04-08 04:38:00,45.1,42.4,29.94,SW,225,3.8,3.8,90,0.00,,SKC,0.00,VWS V14.01,2013-04-08 08:38:00,
2013-04-08 04:39:00,45.1,42.4,29.94,SW,225,3.8,3.8,90,0.00,,SKC,0.00,VWS V14.01,2013-04-08 08:39:00,
2013-04-08 04:40:00,45.1,42.4,29.94,SW,225,3.8,3.8,90,0.00,,SKC,0.00,VWS V14.01,2013-04-08 08:40:00,
2013-04-08 04:41:00,45.1,42.4,29.94,SW,225,3.8,3.8,90,0.00,,SKC,0.00,VWS V14.01,2013-04-08 08:41:00,
2013-04-08 04:42:00,45.1,42.4,29.94,SW,225,3.8,3.8,90,0.00,,SKC,0.00,VWS V14.01,2013-04-08 08:42:00,
2013-04-08 04:43:00,45.1,42.4,29.94,SW,225,3.8,3.8,90,0.00,,SKC,0.00,VWS V14.01,2013-04-08 08:43:00,
2013-04-08 04:44:00,45.1,42.4,29.94,WSW,248,2.9,3.8,90,0.00,,SKC,0.00,VWS V14.01,2013-04-08 08:44:00,
2013-04-08 04:45:00,45.1,42.4,29.94,SW,225,2.7,3.8,90,0.00,,SKC,0.00,VWS V14.01,2013-04-08 08:45:00,
2013-04-08 04:46:00,45.1,42.4,29.94,SW,225,2.7,3.8,90,0.00,,SKC,0.00,VWS V14.01,2013-04-08 08:46:00,
2013-04-08 04:47:00,45.1,42.4,29.94,SW,225,2.7,3.8,90,0.00,,SKC,0.00,VWS V14.01,2013-04-08 08:47:00,
2013-04-08 04:48:00,45.1,42.4,29.94,SW,225,2.7,3.8,90,0.00,,SKC,0.00,VWS V14.01,2013-04-08 08:48:00,
2013-04-08 04:49:00,45.0,42.2,29.94,SW,225,2.7,3.8,90,0.00,,SKC,0.00,VWS V14.01,2013-04-08 08:49:00,
2013-04-08 04:50:00,45.0,42.2,29.94,SW,225,0.0,3.8,90,0.00,,SKC,0.00,VWS V14.01,2013-04-08 08:50:00,
2013-04-08 04:51:00,45.0,42.2,29.94,SW,225,0.0,3.8,90,0.00,,SKC,0.00,VWS V14.01,2013-04-08 08:51:00,
2013-04-08 04:52:00,45.0,42.2,29.94,SW,225,0.0,3.8,90,0.00,,SKC,0.00,VWS V14.01,2013-04-08 08:52:00,
2013-04-08 04:53:00,44.8,41.7,29.94,SW,225,0.0,3.8,89,0.00,,SKC,0.00,VWS V14.01,2013-04-08 08:53:00,
2013-04-08 04:54:00,44.8,41.7,29.94,SW,225,0.0,3.8,89,0.00,,SKC,0.00,VWS V14.01,2013-04-08 08:54:00,
2013-04-08 04:55:00,44.8,41.7,29.94,SW,225,0.0,3.8,89,0.00,,SKC,0.00,VWS V14.01,2013-04-08 08:55:00,
2013-04-08 04:56:00,44.6,41.6,29.94,SW,225,0.0,3.8,89,0.00,,SKC,0.00,VWS V14.01,2013-04-08 08:56:00,
2013-04-08 04:57:00,44.6,41.6,29.94,SW,225,1.1,3.8,89,0.00,,SKC,0.00,VWS V14.01,2013-04-08 08:57:00,
2013-04-08 04:58:00,44.6,41.6,29.94,SW,225,1.1,3.8,89,0.00,,SKC,0.00,VWS V14.01,2013-04-08 08:58:00,
2013-04-08 04:59:00,44.6,41.6,29.94,SW,225,1.1,3.8,89,0.00,,SKC,0.00,VWS V14.01,2013-04-08 08:59:00,
2013-04-08 05:00:00,44.6,41.6,29.94,SW,225,0.0,3.8,89,0.00,,SKC,0.00,VWS V14.01,2013-04-08 09:00:00,
2013-04-08 05:01:00,44.4,41.4,29.94,SW,225,0.0,3.8,89,0.00,,SKC,0.00,VWS V14.01,2013-04-08 09:01:00,
2013-04-08 05:02:00,44.4,41.4,29.94,SW,225,0.0,3.8,89,0.00,,SKC,0.00,VWS V14.01,2013-04-08 09:02:00,
2013-04-08 05:03:00,44.2,41.2,29.94,SW,225,0.0,2.9,89,0.00,,SKC,0.00,VWS V14.01,2013-04-08 09:03:00,
2013-04-08 05:04:00,44.2,41.2,29.94,SW,225,0.0,2.7,89,0.00,,SKC,0.00,VWS V14.01,2013-04-08 09:04:00,
2013-04-08 05:05:00,44.2,41.2,29.94,SW,225,0.0,2.7,89,0.00,,SKC,0.00,VWS V14.01,2013-04-08 09:05:00,
2013-04-08 05:06:00,44.1,41.0,29.94,SW,225,0.0,2.7,89,0.00,,SKC,0.00,VWS V14.01,2013-04-08 09:06:00,
2013-04-08 05:07:00,44.1,41.0,29.94,SW,225,0.0,2.7,89,0.00,,SKC,0.00,VWS V14.01,2013-04-08 09:07:00,
2013-04-08 05:08:00,44.1,41.0,29.94,SW,225,0.0,2.7,89,0.00,,SKC,0.00,VWS V14.01,2013-04-08 09:08:00,
2013-04-08 05:09:00,44.1,41.0,29.94,SW,225,0.0,1.1,89,0.00,,SKC,0.00,VWS V14.01,2013-04-08 09:09:00,
2013-04-08 05:10:00,43.9,40.6,29.94,SW,225,0.0,1.1,88,0.00,,SKC,0.00,VWS V14.01,2013-04-08 09:10:00,
2013-04-08 05:11:00,43.9,40.6,29.94,SW,225,0.0,1.1,88,0.00,,SKC,0.00,VWS V14.01,2013-04-08 09:11:00,
2013-04-08 05:12:00,43.9,40.6,29.94,SW,225,0.0,1.1,88,0.00,,SKC,0.00,VWS V14.01,2013-04-08 09:12:00,
2013-04-08 05:13:00,43.7,40.4,29.94,SW,225,0.0,1.1,88,0.00,,SKC,0.00,VWS V14.01,2013-04-08 09:13:00,
2013-04-08 05:14:00,43.7,40.4,29.94,SW,225,0.0,1.1,88,0.00,,SKC,0.00,VWS V14.01,2013-04-08 09:14:00,
2013-04-08 05:15:00,43.5,40.2,29.94,SW,225,0.0,1.1,88,0.00,,SKC,0.00,VWS V14.01,2013-04-08 09:15:00,
2013-04-08 05:16:00,43.5,40.2,29.94,SW,225,0.0,1.1,88,0.00,,SKC,0.00,VWS V14.01,2013-04-08 09:16:00,
2013-04-08 05:17:00,43.5,40.2,29.94,SW,225,0.0,1.1,88,0.00,,SKC,0.00,VWS V14.01,2013-04-08 09:17:00,
2013-04-08 05:18:00,43.5,40.2,29.94,SW,225,0.0,1.1,88,0.00,,SKC,0.00,VWS V14.01,2013-04-08 09:18:00,
2013-04-08 05:19:00,43.3,40.0,29.94,SW,225,0.0,0.0,88,0.00,,SKC,0.00,VWS V14.01,2013-04-08 09:19:00,
2013-04-08 05:20:00,43.3,40.0,29.94,SW,225,0.0,0.0,88,0.00,,SKC,0.00,VWS V14.01,2013-04-08 09:20:00,
2013-04-08 05:27:00,43.0,39.7,29.94,SW,225,0.0,0.0,88,0.00,,SKC,0.00,VWS V14.01,2013-04-08 09:27:00,
2013-04-08 05:28:00,43.0,39.7,29.94,SW,225,0.0,0.0,88,0.00,,SKC,0.00,VWS V14.01,2013-04-08 09:28:00,
2013-04-08 05:29:00,43.0,39.7,29.94,SW,225,0.0,0.0,88,0.00,,SKC,0.00,VWS V14.01,2013-04-08 09:29:00,
2013-04-08 05:30:00,43.0,39.7,29.94,SW,225,0.0,0.0,88,0.00,,SKC,0.00,VWS V14.01,2013-04-08 09:30:00,
2013-04-08 05:31:00,43.0,39.7,29.94,SW,225,0.0,0.0,88,0.00,,SKC,0.00,VWS V14.01,2013-04-08 09:31:00,
2013-04-08 05:32:00,43.0,39.7,29.94,SW,225,0.0,0.0,88,0.00,,SKC,0.00,VWS V14.01,2013-04-08 09:32:00,
2013-04-08 05:33:00,43.0,39.7,29.94,SW,225,0.0,0.0,88,0.00,,SKC,0.00,VWS V14.01,2013-04-08 09:33:00,
2013-04-08 05:34:00,43.0,39.7,29.94,South,180,0.0,0.0,88,0.00,,SKC,0.00,VWS V14.01,2013-04-08 09:34:00,
2013-04-08 05:35:00,43.0,40.0,29.94,South,180,0.0,0.0,89,0.00,,SKC,0.00,VWS V14.01,2013-04-08 09:35:00,
2013-04-08 05:36:00,43.0,40.0,29.94,South,180,0.0,0.0,89,0.00,,SKC,0.00,VWS V14.01,2013-04-08 09:36:00,
2013-04-08 05:37:00,43.0,40.0,29.94,South,180,0.0,0.0,89,0.00,,SKC,0.00,VWS V14.01,2013-04-08 09:37:00,
2013-04-08 05:38:00,43.0,40.0,29.94,South,180,0.0,0.0,89,0.00,,SKC,0.00,VWS V14.01,2013-04-08 09:38:00,
2013-04-08 05:39:00,43.0,40.0,29.94,South,180,0.0,0.0,89,0.00,,SKC,0.00,VWS V14.01,2013-04-08 09:39:00,
2013-04-08 05:40:00,43.0,40.0,29.94,South,180,0.0,0.0,89,0.00,,SKC,0.00,VWS V14.01,2013-04-08 09:40:00,
2013-04-08 05:41:00,43.0,40.0,29.94,South,180,0.0,0.0,89,0.00,,SKC,0.00,VWS V14.01,2013-04-08 09:41:00,
2013-04-08 05:42:00,43.0,40.0,29.94,South,180,0.0,0.0,89,0.00,,SKC,0.00,VWS V14.01,2013-04-08 09:42:00,
2013-04-08 05:43:00,43.0,40.0,29.94,South,180,0.0,0.0,89,0.00,,SKC,0.00,VWS V14.01,2013-04-08 09:43:00,
2013-04-08 05:44:00,43.0,40.0,29.94,South,180,0.0,0.0,89,0.00,,SKC,0.00,VWS V14.01,2013-04-08 09:44:00,
2013-04-08 05:45:00,43.0,40.0,29.94,SSW,202,0.0,0.0,89,0.00,,SKC,0.00,VWS V14.01,2013-04-08 09:45:00,
2013-04-08 05:46:00,43.0,40.0,29.94,SSW,202,0.0,0.0,89,0.00,,SKC,0.00,VWS V14.01,2013-04-08 09:46:00,
2013-04-08 05:47:00,43.0,40.0,29.94,SW,225,0.0,0.0,89,0.00,,SKC,0.00,VWS V14.01,2013-04-08 09:47:00,
2013-04-08 05:48:00,43.0,40.0,29.94,SW,225,0.0,0.0,89,0.00,,SKC,0.00,VWS V14.01,2013-04-08 09:48:00,
2013-04-08 05:49:00,43.0,40.0,29.94,SW,225,0.0,0.0,89,0.00,,SKC,0.00,VWS V14.01,2013-04-08 09:49:00,
2013-04-08 05:50:00,43.0,40.2,29.94,SW,225,0.0,0.0,90,0.00,,SKC,0.00,VWS V14.01,2013-04-08 09:50:00,
2013-04-08 05:51:00,43.0,40.2,29.94,SW,225,0.0,0.0,90,0.00,,SKC,0.00,VWS V14.01,2013-04-08 09:51:00,
2013-04-08 05:52:00,43.0,40.2,29.94,SW,225,0.0,0.0,90,0.00,,SKC,0.00,VWS V14.01,2013-04-08 09:52:00,
2013-04-08 05:53:00,42.8,40.1,29.94,SW,225,0.0,0.0,90,0.00,,SKC,0.00,VWS V14.01,2013-04-08 09:53:00,
2013-04-08 05:54:00,42.8,40.1,29.94,SW,225,0.0,0.0,90,0.00,,SKC,0.00,VWS V14.01,2013-04-08 09:54:00,
2013-04-08 05:55:00,42.8,40.1,29.94,SW,225,0.0,0.0,90,0.00,,SKC,0.00,VWS V14.01,2013-04-08 09:55:00,
2013-04-08 05:56:00,42.8,40.1,29.94,SW,225,0.0,0.0,90,0.00,,SKC,0.00,VWS V14.01,2013-04-08 09:56:00,
2013-04-08 05:57:00,42.8,40.1,29.94,SSW,202,0.0,0.0,90,0.00,,SKC,0.00,VWS V14.01,2013-04-08 09:57:00,
2013-04-08 05:58:00,42.8,40.1,29.94,SSW,202,0.0,0.0,90,0.00,,SKC,0.00,VWS V14.01,2013-04-08 09:58:00,
2013-04-08 05:59:00,42.8,40.1,29.94,South,180,0.0,0.0,90,0.00,,SKC,0.00,VWS V14.01,2013-04-08 09:59:00,
2013-04-08 06:00:00,42.6,39.9,29.94,SE,135,0.0,0.0,90,0.00,,SKC,0.00,VWS V14.01,2013-04-08 10:00:00,
2013-04-08 06:01:00,42.6,39.9,29.94,SE,135,0.0,0.0,90,0.00,,SKC,0.00,VWS V14.01,2013-04-08 10:01:00,
2013-04-08 06:02:00,42.6,39.9,29.94,SE,135,0.0,0.0,90,0.00,,SKC,0.00,VWS V14.01,2013-04-08 10:02:00,
2013-04-08 06:03:00,42.4,39.7,29.94,SSE,158,0.0,0.0,90,0.00,,SKC,0.00,VWS V14.01,2013-04-08 10:03:00,
2013-04-08 06:04:00,42.4,39.7,29.94,SSE,158,0.0,0.0,90,0.00,,SKC,0.00,VWS V14.01,2013-04-08 10:04:00,
2013-04-08 06:05:00,42.3,39.5,29.94,SSE,158,0.0,0.0,90,0.00,,SKC,0.00,VWS V14.01,2013-04-08 10:05:00,
2013-04-08 06:06:00,42.3,39.3,29.94,SE,135,0.0,0.0,89,0.00,,SKC,0.00,VWS V14.01,2013-04-08 10:06:00,
2013-04-08 06:07:00,42.3,39.3,29.94,SE,135,0.0,0.0,89,0.00,,SKC,0.00,VWS V14.01,2013-04-08 10:07:00,
2013-04-08 06:14:00,42.1,39.1,29.94,SE,135,0.0,0.0,89,0.00,,SKC,0.00,VWS V14.01,2013-04-08 10:14:00,
2013-04-08 06:15:00,42.1,39.4,29.94,SE,135,0.0,0.0,90,0.00,,SKC,0.00,VWS V14.01,2013-04-08 10:15:00,
2013-04-08 06:16:00,42.1,39.4,29.94,SE,135,0.0,0.0,90,0.00,,SKC,0.00,VWS V14.01,2013-04-08 10:16:00,
2013-04-08 06:17:00,42.1,39.4,29.94,SE,135,0.0,0.0,90,0.00,,SKC,0.00,VWS V14.01,2013-04-08 10:17:00,
2013-04-08 06:18:00,42.1,39.4,29.94,ESE,112,0.0,0.0,90,0.00,,SKC,0.00,VWS V14.01,2013-04-08 10:18:00,
2013-04-08 06:19:00,42.1,39.4,29.94,SE,135,0.0,0.0,90,0.00,,SKC,0.00,VWS V14.01,2013-04-08 10:19:00,
2013-04-08 06:20:00,42.1,39.4,29.94,SE,135,0.0,0.0,90,0.00,,SKC,0.00,VWS V14.01,2013-04-08 10:20:00,
2013-04-08 06:21:00,42.1,39.4,29.94,SE,135,0.0,0.0,90,0.00,,SKC,0.00,VWS V14.01,2013-04-08 10:21:00,
2013-04-08 06:22:00,42.1,39.4,29.94,ESE,112,0.0,0.0,90,0.00,,SKC,0.00,VWS V14.01,2013-04-08 10:22:00,
2013-04-08 06:23:00,42.1,39.4,29.94,ESE,112,0.0,0.0,90,0.00,,SKC,0.00,VWS V14.01,2013-04-08 10:23:00,
2013-04-08 06:24:00,42.1,39.7,29.94,ESE,112,0.0,0.0,91,0.00,,SKC,0.00,VWS V14.01,2013-04-08 10:24:00,
2013-04-08 06:25:00,42.1,39.7,29.94,ESE,112,0.0,0.0,91,0.00,,SKC,0.00,VWS V14.01,2013-04-08 10:25:00,
2013-04-08 06:26:00,42.1,39.7,29.94,ESE,112,0.0,0.0,91,0.00,,SKC,0.00,VWS V14.01,2013-04-08 10:26:00,
2013-04-08 06:27:00,42.1,39.4,29.94,ESE,112,0.0,0.0,90,0.00,,SKC,0.00,VWS V14.01,2013-04-08 10:27:00,
2013-04-08 06:28:00,41.9,39.5,29.94,ESE,112,0.0,0.0,91,0.00,,SKC,0.00,VWS V14.01,2013-04-08 10:28:00,
2013-04-08 06:29:00,41.9,39.5,29.94,ESE,112,0.0,0.0,91,0.00,,SKC,0.00,VWS V14.01,2013-04-08 10:29:00,
2013-04-08 06:30:00,41.9,39.2,29.94,ESE,112,0.0,0.0,90,0.00,,SKC,0.00,VWS V14.01,2013-04-08 10:30:00,
2013-04-08 06:31:00,41.9,39.5,29.94,ESE,112,0.0,0.0,91,0.00,,SKC,0.00,VWS V14.01,2013-04-08 10:31:00,
2013-04-08 06:32:00,41.9,39.5,29.94,ESE,112,0.0,0.0,91,0.00,,SKC,0.00,VWS V14.01,2013-04-08 10:32:00,
2013-04-08 06:33:00,41.9,39.2,29.94,ESE,112,0.0,0.0,90,0.00,,SKC,0.00,VWS V14.01,2013-04-08 10:33:00,
2013-04-08 06:34:00,41.7,39.0,29.94,ESE,112,0.0,0.0,90,0.00,,SKC,0.00,VWS V14.01,2013-04-08 10:34:00,
2013-04-08 06:35:00,41.7,39.0,29.94,SE,135,0.0,0.0,90,0.00,,SKC,0.00,VWS V14.01,2013-04-08 10:35:00,
2013-04-08 06:36:00,41.7,39.0,29.94,SE,135,0.0,0.0,90,0.00,,SKC,0.00,VWS V14.01,2013-04-08 10:36:00,
2013-04-08 06:37:00,41.7,39.0,29.94,SE,135,0.0,0.0,90,0.00,,SKC,0.00,VWS V14.01,2013-04-08 10:37:00,
2013-04-08 06:38:00,41.7,39.0,29.94,SE,135,0.0,0.0,90,0.00,,SKC,0.00,VWS V14.01,2013-04-08 10:38:00,
2013-04-08 06:39:00,41.7,39.0,29.94,SE,135,0.0,0.0,90,0.00,,SKC,0.00,VWS V14.01,2013-04-08 10:39:00,
2013-04-08 06:40:00,41.7,39.0,29.94,South,180,0.0,0.0,90,0.00,,SKC,0.00,VWS V14.01,2013-04-08 10:40:00,
2013-04-08 06:41:00,41.7,39.0,29.94,SW,225,0.0,0.0,90,0.00,,SKC,0.00,VWS V14.01,2013-04-08 10:41:00,
2013-04-08 06:42:00,41.7,39.3,29.94,SW,225,0.0,0.0,91,0.00,,SKC,0.00,VWS V14.01,2013-04-08 10:42:00,
2013-04-08 06:43:00,41.9,39.5,29.94,SW,225,0.0,0.0,91,0.00,,SKC,0.00,VWS V14.01,2013-04-08 10:43:00,
2013-04-08 06:44:00,41.9,39.5,29.94,SW,225,0.0,0.0,91,0.00,,SKC,0.00,VWS V14.01,2013-04-08 10:44:00,
2013-04-08 06:45:00,41.9,39.5,29.94,SW,225,0.0,0.0,91,0.00,,SKC,0.00,VWS V14.01,2013-04-08 10:45:00,
2013-04-08 06:46:00,41.9,39.5,29.94,SW,225,0.0,0.0,91,0.00,,SKC,0.00,VWS V14.01,2013-04-08 10:46:00,
2013-04-08 06:47:00,41.9,39.5,29.94,SW,225,0.0,0.0,91,0.00,,SKC,0.00,VWS V14.01,2013-04-08 10:47:00,
2013-04-08 06:48:00,41.9,39.5,29.94,SW,225,0.0,0.0,91,0.00,,SKC,0.00,VWS V14.01,2013-04-08 10:48:00,
2013-04-08 06:49:00,41.9,39.5,29.94,SW,225,0.0,0.0,91,0.00,,SKC,0.00,VWS V14.01,2013-04-08 10:49:00,
2013-04-08 06:50:00,41.9,39.5,29.94,SW,225,0.0,0.0,91,0.00,,SKC,0.00,VWS V14.01,2013-04-08 10:50:00,
2013-04-08 06:51:00,41.9,39.5,29.94,SW,225,0.0,0.0,91,0.00,,SKC,0.00,VWS V14.01,2013-04-08 10:51:00,
2013-04-08 06:52:00,42.1,39.9,29.94,SW,225,0.0,0.0,92,0.00,,SKC,0.00,VWS V14.01,2013-04-08 10:52:00,
2013-04-08 06:53:00,42.1,39.9,29.94,SW,225,0.0,0.0,92,0.00,,SKC,0.00,VWS V14.01,2013-04-08 10:53:00,
2013-04-08 06:54:00,42.1,39.9,29.94,SW,225,0.0,0.0,92,0.00,,SKC,0.00,VWS V14.01,2013-04-08 10:54:00,
2013-04-08 06:55:00,42.1,39.9,29.94,SW,225,0.0,0.0,92,0.00,,SKC,0.00,VWS V14.01,2013-04-08 10:55:00,
2013-04-08 06:56:00,42.1,39.9,29.94,WSW,248,0.0,0.0,92,0.00,,SKC,0.00,VWS V14.01,2013-04-08 10:56:00,
2013-04-08 06:57:00,42.3,40.1,29.94,WSW,248,0.0,0.0,92,0.00,,SKC,0.00,VWS V14.01,2013-04-08 10:57:00,
2013-04-08 06:58:00,42.3,40.1,29.97,WSW,248,0.0,0.0,92,0.00,,SKC,0.00,VWS V14.01,2013-04-08 10:58:00,
2013-04-08 06:59:00,42.3,40.1,29.97,West,270,0.0,0.0,92,0.00,,SKC,0.00,VWS V14.01,2013-04-08 10:59:00,
2013-04-08 07:00:00,42.3,40.1,29.97,West,270,0.0,0.0,92,0.00,,SKC,0.00,VWS V14.01,2013-04-08 11:00:00,
2013-04-08 07:01:00,42.4,40.3,29.97,West,270,0.0,0.0,92,0.00,,SKC,0.00,VWS V14.01,2013-04-08 11:01:00,
2013-04-08 07:02:00,42.4,40.3,29.97,West,270,0.0,0.0,92,0.00,,SKC,0.00,VWS V14.01,2013-04-08 11:02:00,
2013-04-08 07:03:00,42.4,40.3,29.97,West,270,0.0,0.0,92,0.00,,SKC,0.00,VWS V14.01,2013-04-08 11:03:00,
2013-04-08 07:04:00,42.4,40.3,29.97,WNW,292,0.0,0.0,92,0.00,,SKC,0.00,VWS V14.01,2013-04-08 11:04:00,
2013-04-08 07:05:00,42.4,40.6,29.97,NW,315,0.0,0.0,93,0.00,,SKC,0.00,VWS V14.01,2013-04-08 11:05:00,
2013-04-08 07:06:00,42.6,40.7,29.97,WNW,292,0.0,0.0,93,0.00,,SKC,0.00,VWS V14.01,2013-04-08 11:06:00,
2013-04-08 07:07:00,42.8,40.6,29.97,WNW,292,2.7,2.7,92,0.00,,SKC,0.00,VWS V14.01,2013-04-08 11:07:00,
2013-04-08 07:08:00,42.8,40.6,29.97,WNW,292,2.7,2.7,92,0.00,,SKC,0.00,VWS V14.01,2013-04-08 11:08:00,
2013-04-08 07:09:00,42.8,40.6,29.97,WNW,292,2.5,2.7,92,0.00,,SKC,0.00,VWS V14.01,2013-04-08 11:09:00,
2013-04-08 07:10:00,43.0,41.1,29.97,WNW,292,2.5,2.7,93,0.00,,SKC,0.00,VWS V14.01,2013-04-08 11:10:00,
2013-04-08 07:11:00,43.0,41.1,29.97,WNW,292,2.9,2.9,93,0.00,,SKC,0.00,VWS V14.01,2013-04-08 11:11:00,
2013-04-08 07:12:00,43.3,41.5,29.97,WNW,292,2.5,2.9,93,0.00,,SKC,0.00,VWS V14.01,2013-04-08 11:12:00,
2013-04-08 07:13:00,43.3,41.5,29.97,WNW,292,2.5,2.9,93,0.00,,SKC,0.00,VWS V14.01,2013-04-08 11:13:00,
2013-04-08 07:14:00,43.5,41.6,29.97,NW,315,2.5,2.9,93,0.00,,SKC,0.00,VWS V14.01,2013-04-08 11:14:00,
2013-04-08 07:15:00,43.5,41.6,29.97,NW,315,2.5,2.9,93,0.00,,SKC,0.00,VWS V14.01,2013-04-08 11:15:00,
2013-04-08 07:16:00,43.5,41.6,29.97,NW,315,3.6,3.6,93,0.00,,SKC,0.00,VWS V14.01,2013-04-08 11:16:00,
2013-04-08 07:17:00,43.7,41.8,29.97,NW,315,3.6,3.6,93,0.00,,SKC,0.00,VWS V14.01,2013-04-08 11:17:00,
2013-04-08 07:18:00,43.9,42.0,29.97,NW,315,3.6,3.6,93,0.00,,SKC,0.00,VWS V14.01,2013-04-08 11:18:00,
2013-04-08 07:19:00,44.1,42.2,29.97,NW,315,3.6,3.6,93,0.00,,SKC,0.00,VWS V14.01,2013-04-08 11:19:00,
2013-04-08 07:20:00,44.2,42.6,29.97,NW,315,4.3,4.3,94,0.00,,SKC,0.00,VWS V14.01,2013-04-08 11:20:00,
2013-04-08 07:21:00,44.4,42.8,29.97,NNW,338,5.4,5.4,94,0.00,,SKC,0.00,VWS V14.01,2013-04-08 11:21:00,
2013-04-08 07:22:00,44.4,42.8,29.97,NNW,338,5.4,5.4,94,0.00,,SKC,0.00,VWS V14.01,2013-04-08 11:22:00,
2013-04-08 07:23:00,44.6,42.7,29.97,NW,315,3.8,5.4,93,0.00,,SKC,0.00,VWS V14.01,2013-04-08 11:23:00,
2013-04-08 07:24:00,44.6,42.7,29.97,NW,315,4.9,5.4,93,0.00,,SKC,0.00,VWS V14.01,2013-04-08 11:24:00,
2013-04-08 07:25:00,44.6,42.7,29.97,NW,315,3.1,5.4,93,0.00,,SKC,0.00,VWS V14.01,2013-04-08 11:25:00,
2013-04-08 07:26:00,44.6,42.7,29.97,NW,315,3.6,5.4,93,0.00,,SKC,0.00,VWS V14.01,2013-04-08 11:26:00,
2013-04-08 07:27:00,44.8,42.9,29.97,NW,315,4.9,5.4,93,0.00,,SKC,0.00,VWS V14.01,2013-04-08 11:27:00,
2013-04-08 07:28:00,44.8,42.9,29.94,NW,315,4.7,5.4,93,0.00,,SKC,0.00,VWS V14.01,2013-04-08 11:28:00,
2013-04-08 07:29:00,44.8,42.9,29.94,NW,315,2.7,5.4,93,0.00,,SKC,0.00,VWS V14.01,2013-04-08 11:29:00,
2013-04-08 07:30:00,44.8,42.9,29.94,WNW,292,4.3,5.4,93,0.00,,SKC,0.00,VWS V14.01,2013-04-08 11:30:00,
2013-04-08 07:31:00,44.8,42.9,29.94,NW,315,3.6,5.4,93,0.00,,SKC,0.00,VWS V14.01,2013-04-08 11:31:00,
2013-04-08 07:32:00,44.8,42.9,29.94,NW,315,3.4,5.4,93,0.00,,SKC,0.00,VWS V14.01,2013-04-08 11:32:00,
2013-04-08 07:33:00,44.8,42.9,29.94,NW,315,3.8,5.4,93,0.00,,SKC,0.00,VWS V14.01,2013-04-08 11:33:00,
2013-04-08 07:34:00,44.8,42.9,29.94,NW,315,4.3,5.4,93,0.00,,SKC,0.00,VWS V14.01,2013-04-08 11:34:00,
2013-04-08 07:35:00,44.8,42.9,29.94,WNW,292,4.0,5.4,93,0.00,,SKC,0.00,VWS V14.01,2013-04-08 11:35:00,
2013-04-08 07:36:00,45.0,43.1,29.94,NW,315,3.8,5.4,93,0.00,,SKC,0.00,VWS V14.01,2013-04-08 11:36:00,
2013-04-08 07:37:00,45.0,43.1,29.94,NW,315,4.7,5.4,93,0.00,,SKC,0.00,VWS V14.01,2013-04-08 11:37:00,
2013-04-08 07:38:00,45.0,43.1,29.94,West,270,3.4,5.4,93,0.00,,SKC,0.00,VWS V14.01,2013-04-08 11:38:00,
2013-04-08 07:39:00,45.0,43.1,29.94,NW,315,3.8,5.4,93,0.00,,SKC,0.00,VWS V14.01,2013-04-08 11:39:00,
2013-04-08 07:40:00,45.1,43.2,29.94,NW,315,4.0,5.4,93,0.00,,SKC,0.00,VWS V14.01,2013-04-08 11:40:00,
2013-04-08 07:41:00,45.1,43.2,29.94,NW,315,4.0,5.4,93,0.00,,SKC,0.00,VWS V14.01,2013-04-08 11:41:00,
2013-04-08 07:42:00,45.3,43.4,29.94,NW,315,4.0,4.9,93,0.00,,SKC,0.00,VWS V14.01,2013-04-08 11:42:00,
2013-04-08 07:43:00,45.5,43.6,29.97,NW,315,3.4,4.9,93,0.00,,SKC,0.00,VWS V14.01,2013-04-08 11:43:00,
2013-04-08 07:44:00,45.5,43.6,29.97,NW,315,3.6,4.9,93,0.00,,SKC,0.00,VWS V14.01,2013-04-08 11:44:00,
2013-04-08 07:45:00,45.7,43.8,29.97,NW,315,3.4,4.9,93,0.00,,SKC,0.00,VWS V14.01,2013-04-08 11:45:00,
2013-04-08 07:46:00,45.7,43.8,29.97,NW,315,2.7,4.9,93,0.00,,SKC,0.00,VWS V14.01,2013-04-08 11:46:00,
2013-04-08 07:47:00,45.9,44.0,29.97,NW,315,3.4,4.7,93,0.00,,SKC,0.00,VWS V14.01,2013-04-08 11:47:00,
2013-04-08 07:48:00,45.9,44.0,29.97,West,270,2.7,4.7,93,0.00,,SKC,0.00,VWS V14.01,2013-04-08 11:48:00,
2013-04-08 07:49:00,46.0,44.1,29.97,WNW,292,4.3,4.7,93,0.00,,SKC,0.00,VWS V14.01,2013-04-08 11:49:00,
2013-04-08 07:50:00,46.2,44.3,29.97,WNW,292,4.0,4.7,93,0.00,,SKC,0.00,VWS V14.01,2013-04-08 11:50:00,
2013-04-08 07:51:00,46.2,44.3,29.97,NW,315,3.1,4.7,93,0.00,,SKC,0.00,VWS V14.01,2013-04-08 11:51:00,
2013-04-08 07:52:00,46.4,44.5,29.97,NW,315,3.1,4.7,93,0.00,,SKC,0.00,VWS V14.01,2013-04-08 11:52:00,
2013-04-08 07:53:00,46.4,44.5,29.97,NW,315,3.1,4.7,93,0.00,,SKC,0.00,VWS V14.01,2013-04-08 11:53:00,
2013-04-08 07:54:00,46.6,44.7,29.97,WNW,292,3.6,4.7,93,0.00,,SKC,0.00,VWS V14.01,2013-04-08 11:54:00,
2013-04-08 07:55:00,46.6,44.7,29.97,WNW,292,4.3,4.7,93,0.00,,SKC,0.00,VWS V14.01,2013-04-08 11:55:00,
2013-04-08 07:56:00,46.6,44.7,29.97,WNW,292,3.6,4.7,93,0.00,,SKC,0.00,VWS V14.01,2013-04-08 11:56:00,
2013-04-08 07:57:00,46.8,44.8,29.97,NW,315,2.9,4.3,93,0.00,,SKC,0.00,VWS V14.01,2013-04-08 11:57:00,
2013-04-08 07:58:00,46.8,44.8,29.97,West,270,3.8,4.3,93,0.00,,SKC,0.00,VWS V14.01,2013-04-08 11:58:00,
2013-04-08 07:59:00,46.9,45.0,29.97,NW,315,2.9,4.3,93,0.00,,SKC,0.00,VWS V14.01,2013-04-08 11:59:00,
2013-04-08 08:00:00,46.9,45.0,29.97,NW,315,3.1,4.3,93,0.00,,SKC,0.00,VWS V14.01,2013-04-08 12:00:00,
2013-04-08 08:01:00,46.9,45.0,29.97,West,270,4.5,4.5,93,0.00,,SKC,0.00,VWS V14.01,2013-04-08 12:01:00,
2013-04-08 08:02:00,47.1,45.2,29.97,NW,315,3.1,4.5,93,0.00,,SKC,0.00,VWS V14.01,2013-04-08 12:02:00,
2013-04-08 08:03:00,47.1,45.2,29.97,WNW,292,4.3,4.5,93,0.00,,SKC,0.00,VWS V14.01,2013-04-08 12:03:00,
2013-04-08 08:04:00,47.1,45.2,29.97,NW,315,2.9,4.5,93,0.00,,SKC,0.00,VWS V14.01,2013-04-08 12:04:00,
2013-04-08 08:05:00,47.3,45.4,29.97,NW,315,3.4,4.5,93,0.00,,SKC,0.00,VWS V14.01,2013-04-08 12:05:00,
2013-04-08 08:06:00,47.3,45.1,29.97,NW,315,3.8,4.5,92,0.00,,SKC,0.00,VWS V14.01,2013-04-08 12:06:00,
2013-04-08 08:07:00,47.3,45.1,29.97,NW,315,3.4,4.5,92,0.00,,SKC,0.00,VWS V14.01,2013-04-08 12:07:00,
2013-04-08 08:08:00,47.3,45.1,29.97,NW,315,3.4,4.5,92,0.00,,SKC,0.00,VWS V14.01,2013-04-08 12:08:00,
2013-04-08 08:09:00,47.3,45.1,29.97,NNW,338,2.7,4.5,92,0.00,,SKC,0.00,VWS V14.01,2013-04-08 12:09:00,
2013-04-08 08:10:00,47.3,45.1,29.97,North,0,4.0,4.5,92,0.00,,SKC,0.00,VWS V14.01,2013-04-08 12:10:00,
2013-04-08 08:11:00,47.3,45.1,29.97,NW,315,3.4,4.5,92,0.00,,SKC,0.00,VWS V14.01,2013-04-08 12:11:00,
2013-04-08 08:12:00,47.3,45.1,29.97,NW,315,2.7,4.5,92,0.00,,SKC,0.00,VWS V14.01,2013-04-08 12:12:00,
2013-04-08 08:13:00,47.5,45.3,30.00,NW,315,2.7,4.5,92,0.00,,SKC,0.00,VWS V14.01,2013-04-08 12:13:00,
2013-04-08 08:14:00,47.5,45.3,30.00,NW,315,4.3,4.5,92,0.00,,SKC,0.00,VWS V14.01,2013-04-08 12:14:00,
2013-04-08 08:21:00,47.7,45.2,30.00,NW,315,2.5,4.5,91,0.00,,SKC,0.00,VWS V14.01,2013-04-08 12:21:00,
2013-04-08 08:22:00,47.7,45.2,30.00,NW,315,2.5,4.5,91,0.00,,SKC,0.00,VWS V14.01,2013-04-08 12:22:00,
2013-04-08 08:23:00,47.7,45.2,30.00,NW,315,3.6,4.5,91,0.00,,SKC,0.00,VWS V14.01,2013-04-08 12:23:00,
2013-04-08 08:24:00,47.7,45.2,30.00,NW,315,3.8,4.5,91,0.00,,SKC,0.00,VWS V14.01,2013-04-08 12:24:00,
2013-04-08 08:25:00,47.7,45.2,30.00,NW,315,4.5,4.5,91,0.00,,SKC,0.00,VWS V14.01,2013-04-08 12:25:00,
2013-04-08 08:26:00,47.8,45.3,30.00,NW,315,3.6,4.5,91,0.00,,SKC,0.00,VWS V14.01,2013-04-08 12:26:00,
2013-04-08 08:27:00,47.8,45.3,30.00,NW,315,2.5,4.5,91,0.00,,SKC,0.00,VWS V14.01,2013-04-08 12:27:00,
2013-04-08 08:28:00,47.8,45.3,29.97,NW,315,3.1,4.5,91,0.00,,SKC,0.00,VWS V14.01,2013-04-08 12:28:00,
2013-04-08 08:29:00,48.0,45.5,29.97,NW,315,2.0,4.5,91,0.00,,SKC,0.00,VWS V14.01,2013-04-08 12:29:00,
2013-04-08 08:30:00,48.0,45.5,29.97,WNW,292,2.9,4.5,91,0.00,,SKC,0.00,VWS V14.01,2013-04-08 12:30:00,
2013-04-08 08:31:00,48.0,45.5,29.97,West,270,2.7,4.5,91,0.00,,SKC,0.00,VWS V14.01,2013-04-08 12:31:00,
2013-04-08 08:32:00,48.2,45.4,29.97,WNW,292,3.8,4.5,90,0.00,,SKC,0.00,VWS V14.01,2013-04-08 12:32:00,
2013-04-08 08:33:00,48.2,45.4,29.97,NW,315,3.1,4.5,90,0.00,,SKC,0.00,VWS V14.01,2013-04-08 12:33:00,
2013-04-08 08:34:00,48.2,45.4,29.97,West,270,6.0,6.0,90,0.00,,SKC,0.00,VWS V14.01,2013-04-08 12:34:00,
2013-04-08 08:35:00,48.2,45.4,29.97,West,270,3.8,6.0,90,0.00,,SKC,0.00,VWS V14.01,2013-04-08 12:35:00,
2013-04-08 08:36:00,48.4,45.6,29.97,NW,315,3.4,6.0,90,0.00,,SKC,0.00,VWS V14.01,2013-04-08 12:36:00,
2013-04-08 08:37:00,48.4,45.6,29.97,West,270,3.1,6.0,90,0.00,,SKC,0.00,VWS V14.01,2013-04-08 12:37:00,
2013-04-08 08:38:00,48.4,45.6,29.97,NW,315,2.0,6.0,90,0.00,,SKC,0.00,VWS V14.01,2013-04-08 12:38:00,
2013-04-08 08:39:00,48.4,45.6,29.97,West,270,1.6,6.0,90,0.00,,SKC,0.00,VWS V14.01,2013-04-08 12:39:00,
2013-04-08 08:40:00,48.4,45.3,29.97,West,270,2.9,6.0,89,0.00,,SKC,0.00,VWS V14.01,2013-04-08 12:40:00,
2013-04-08 08:41:00,48.6,45.5,29.97,West,270,3.8,6.0,89,0.00,,SKC,0.00,VWS V14.01,2013-04-08 12:41:00,
2013-04-08 08:42:00,48.6,45.5,29.97,West,270,3.4,6.0,89,0.00,,SKC,0.00,VWS V14.01,2013-04-08 12:42:00,
2013-04-08 08:43:00,48.6,45.5,30.00,West,270,2.9,6.0,89,0.00,,SKC,0.00,VWS V14.01,2013-04-08 12:43:00,
2013-04-08 08:44:00,48.6,45.5,30.00,WNW,292,3.1,6.0,89,0.00,,SKC,0.00,VWS V14.01,2013-04-08 12:44:00,
2013-04-08 08:45:00,48.6,45.5,30.00,West,270,3.1,6.0,89,0.00,,SKC,0.00,VWS V14.01,2013-04-08 12:45:00,
2013-04-08 08:46:00,48.6,45.5,30.00,WNW,292,2.5,6.0,89,0.00,,SKC,0.00,VWS V14.01,2013-04-08 12:46:00,
2013-04-08 08:47:00,48.7,45.7,30.00,West,270,3.4,6.0,89,0.00,,SKC,0.00,VWS V14.01,2013-04-08 12:47:00,
2013-04-08 08:48:00,48.7,45.7,30.00,WNW,292,2.9,6.0,89,0.00,,SKC,0.00,VWS V14.01,2013-04-08 12:48:00,
2013-04-08 08:49:00,48.7,45.7,30.00,West,270,4.9,6.0,89,0.00,,SKC,0.00,VWS V14.01,2013-04-08 12:49:00,
2013-04-08 08:50:00,48.7,45.7,30.00,West,270,4.9,6.0,89,0.00,,SKC,0.00,VWS V14.01,2013-04-08 12:50:00,
2013-04-08 08:51:00,48.9,45.8,30.00,WNW,292,4.0,6.0,89,0.00,,SKC,0.00,VWS V14.01,2013-04-08 12:51:00,
2013-04-08 08:52:00,49.1,46.0,30.00,West,270,4.0,6.0,89,0.00,,SKC,0.00,VWS V14.01,2013-04-08 12:52:00,
2013-04-08 08:53:00,49.3,46.2,30.00,West,270,2.7,6.0,89,0.00,,SKC,0.00,VWS V14.01,2013-04-08 12:53:00,
2013-04-08 08:54:00,49.3,46.2,30.00,WNW,292,4.9,4.9,89,0.00,,SKC,0.00,VWS V14.01,2013-04-08 12:54:00,
2013-04-08 08:55:00,49.3,46.2,30.00,WSW,248,4.3,4.9,89,0.00,,SKC,0.00,VWS V14.01,2013-04-08 12:55:00,
2013-04-08 08:56:00,49.6,46.5,30.00,WNW,292,6.5,6.5,89,0.00,,SKC,0.00,VWS V14.01,2013-04-08 12:56:00,
2013-04-08 08:57:00,49.6,46.5,30.00,West,270,5.4,6.5,89,0.00,,SKC,0.00,VWS V14.01,2013-04-08 12:57:00,
2013-04-08 08:58:00,49.8,46.4,29.97,WSW,248,5.4,6.5,88,0.00,,SKC,0.00,VWS V14.01,2013-04-08 12:58:00,
2013-04-08 08:59:00,49.8,46.4,29.97,West,270,4.9,6.5,88,0.00,,SKC,0.00,VWS V14.01,2013-04-08 12:59:00,
2013-04-08 09:00:00,49.8,46.4,29.97,West,270,4.3,6.5,88,0.00,,SKC,0.00,VWS V14.01,2013-04-08 13:00:00,
2013-04-08 09:01:00,49.8,46.4,29.97,NW,315,3.6,6.5,88,0.00,,SKC,0.00,VWS V14.01,2013-04-08 13:01:00,
2013-04-08 09:13:00,50.4,46.0,30.00,WNW,292,5.4,6.5,85,0.00,,SKC,0.00,VWS V14.01,2013-04-08 13:13:00,
2013-04-08 09:14:00,50.4,46.0,30.00,West,270,6.0,6.5,85,0.00,,SKC,0.00,VWS V14.01,2013-04-08 13:14:00,
2013-04-08 09:15:00,50.4,46.0,30.00,West,270,5.8,6.5,85,0.00,,SKC,0.00,VWS V14.01,2013-04-08 13:15:00,
2013-04-08 09:16:00,50.4,46.0,30.00,West,270,5.4,6.5,85,0.00,,SKC,0.00,VWS V14.01,2013-04-08 13:16:00,
2013-04-08 09:17:00,50.5,46.2,30.00,WNW,292,3.8,6.5,85,0.00,,SKC,0.00,VWS V14.01,2013-04-08 13:17:00,
2013-04-08 09:18:00,50.5,46.2,30.00,West,270,4.9,6.5,85,0.00,,SKC,0.00,VWS V14.01,2013-04-08 13:18:00,
2013-04-08 09:19:00,50.5,45.9,30.00,WSW,248,3.4,6.5,84,0.00,,SKC,0.00,VWS V14.01,2013-04-08 13:19:00,
2013-04-08 09:20:00,50.5,45.9,30.00,West,270,7.6,7.6,84,0.00,,SKC,0.00,VWS V14.01,2013-04-08 13:20:00,
2013-04-08 09:21:00,50.5,45.9,30.00,West,270,3.8,7.6,84,0.00,,SKC,0.00,VWS V14.01,2013-04-08 13:21:00,
2013-04-08 09:22:00,50.5,45.9,30.00,West,270,5.6,7.6,84,0.00,,SKC,0.00,VWS V14.01,2013-04-08 13:22:00,
2013-04-08 09:23:00,50.5,45.9,30.00,West,270,6.0,7.6,84,0.00,,SKC,0.00,VWS V14.01,2013-04-08 13:23:00,
2013-04-08 09:24:00,50.7,46.1,30.00,West,270,6.0,7.6,84,0.00,,SKC,0.00,VWS V14.01,2013-04-08 13:24:00,
2013-04-08 09:25:00,50.7,46.1,30.00,West,270,6.0,7.6,84,0.00,,SKC,0.00,VWS V14.01,2013-04-08 13:25:00,
2013-04-08 09:26:00,50.7,46.1,30.00,West,270,6.5,7.6,84,0.00,,SKC,0.00,VWS V14.01,2013-04-08 13:26:00,
2013-04-08 09:27:00,50.9,46.2,30.00,West,270,7.2,7.6,84,0.00,,SKC,0.00,VWS V14.01,2013-04-08 13:27:00,
2013-04-08 09:28:00,50.9,46.2,30.00,West,270,3.1,7.6,84,0.00,,SKC,0.00,VWS V14.01,2013-04-08 13:28:00,
2013-04-08 09:29:00,51.1,46.4,30.00,West,270,4.7,7.6,84,0.00,,SKC,0.00,VWS V14.01,2013-04-08 13:29:00,
2013-04-08 09:30:00,51.1,46.4,30.00,West,270,5.8,7.6,84,0.00,,SKC,0.00,VWS V14.01,2013-04-08 13:30:00,
2013-04-08 09:31:00,51.1,46.4,30.00,West,270,5.4,7.6,84,0.00,,SKC,0.00,VWS V14.01,2013-04-08 13:31:00,
2013-04-08 09:32:00,51.1,46.4,30.00,West,270,3.6,7.6,84,0.00,,SKC,0.00,VWS V14.01,2013-04-08 13:32:00,
2013-04-08 09:33:00,51.3,46.6,30.00,NW,315,4.9,7.6,84,0.00,,SKC,0.00,VWS V14.01,2013-04-08 13:33:00,
2013-04-08 09:34:00,51.3,46.3,30.00,WNW,292,5.6,7.6,83,0.00,,SKC,0.00,VWS V14.01,2013-04-08 13:34:00,
2013-04-08 09:35:00,51.3,46.3,30.00,West,270,3.6,7.6,83,0.00,,SKC,0.00,VWS V14.01,2013-04-08 13:35:00,
2013-04-08 09:36:00,51.6,47.0,30.00,West,270,5.4,7.6,84,0.00,,SKC,0.00,VWS V14.01,2013-04-08 13:36:00,
2013-04-08 09:37:00,51.6,47.0,30.00,West,270,4.3,7.6,84,0.00,,SKC,0.00,VWS V14.01,2013-04-08 13:37:00,
2013-04-08 09:38:00,51.6,46.6,30.00,NW,315,3.6,7.6,83,0.00,,SKC,0.00,VWS V14.01,2013-04-08 13:38:00,
2013-04-08 09:39:00,51.6,46.6,30.00,NW,315,3.8,7.6,83,0.00,,SKC,0.00,VWS V14.01,2013-04-08 13:39:00,
2013-04-08 09:40:00,51.6,46.3,30.00,West,270,4.0,7.2,82,0.00,,SKC,0.00,VWS V14.01,2013-04-08 13:40:00,
2013-04-08 09:41:00,51.8,46.5,30.00,NW,315,7.4,7.4,82,0.00,,SKC,0.00,VWS V14.01,2013-04-08 13:41:00,
2013-04-08 09:42:00,51.8,46.5,30.00,West,270,5.8,7.4,82,0.00,,SKC,0.00,VWS V14.01,2013-04-08 13:42:00,
2013-04-08 09:43:00,51.8,46.5,30.00,WNW,292,7.4,7.4,82,0.00,,SKC,0.00,VWS V14.01,2013-04-08 13:43:00,
2013-04-08 09:44:00,52.0,46.7,30.00,WNW,292,6.5,7.4,82,0.00,,SKC,0.00,VWS V14.01,2013-04-08 13:44:00,
2013-04-08 09:45:00,52.0,46.7,30.00,WNW,292,7.4,7.4,82,0.00,,SKC,0.00,VWS V14.01,2013-04-08 13:45:00,
2013-04-08 09:46:00,52.2,46.8,30.00,West,270,4.9,7.4,82,0.00,,SKC,0.00,VWS V14.01,2013-04-08 13:46:00,
2013-04-08 09:47:00,52.2,46.8,30.00,WNW,292,4.5,7.4,82,0.00,,SKC,0.00,VWS V14.01,2013-04-08 13:47:00,
2013-04-08 09:48:00,52.3,47.0,30.00,WNW,292,5.4,7.4,82,0.00,,SKC,0.00,VWS V14.01,2013-04-08 13:48:00,
2013-04-08 09:49:00,52.3,46.7,30.00,NW,315,4.3,7.4,81,0.00,,SKC,0.00,VWS V14.01,2013-04-08 13:49:00,
2013-04-08 09:50:00,52.3,46.7,30.00,WNW,292,5.6,7.4,81,0.00,,SKC,0.00,VWS V14.01,2013-04-08 13:50:00,
2013-04-08 09:51:00,52.3,46.7,30.00,NW,315,6.9,7.4,81,0.00,,SKC,0.00,VWS V14.01,2013-04-08 13:51:00,
2013-04-08 09:52:00,52.3,46.7,30.00,WNW,292,6.5,7.4,81,0.00,,SKC,0.00,VWS V14.01,2013-04-08 13:52:00,
2013-04-08 10:11:00,52.2,45.5,30.00,West,270,6.0,7.4,78,0.00,,SKC,0.00,VWS V14.01,2013-04-08 14:11:00,
2013-04-08 10:12:00,52.2,45.5,30.00,WSW,248,4.9,7.4,78,0.00,,SKC,0.00,VWS V14.01,2013-04-08 14:12:00,
2013-04-08 10:13:00,52.2,45.2,30.00,West,270,4.3,7.4,77,0.00,,SKC,0.00,VWS V14.01,2013-04-08 14:13:00,
2013-04-08 10:14:00,52.2,45.5,30.00,WNW,292,3.1,7.4,78,0.00,,SKC,0.00,VWS V14.01,2013-04-08 14:14:00,
2013-04-08 10:15:00,52.2,45.5,30.00,WNW,292,4.3,7.4,78,0.00,,SKC,0.00,VWS V14.01,2013-04-08 14:15:00,
2013-04-08 10:16:00,52.2,45.5,30.00,West,270,4.7,7.4,78,0.00,,SKC,0.00,VWS V14.01,2013-04-08 14:16:00,
2013-04-08 10:17:00,52.2,45.5,30.00,West,270,3.4,7.4,78,0.00,,SKC,0.00,VWS V14.01,2013-04-08 14:17:00,
2013-04-08 10:18:00,52.2,45.2,30.00,NW,315,4.7,7.4,77,0.00,,SKC,0.00,VWS V14.01,2013-04-08 14:18:00,
2013-04-08 10:19:00,52.2,45.2,30.00,NW,315,4.3,7.4,77,0.00,,SKC,0.00,VWS V14.01,2013-04-08 14:19:00,
2013-04-08 10:20:00,52.2,45.2,30.00,WNW,292,4.9,7.4,77,0.00,,SKC,0.00,VWS V14.01,2013-04-08 14:20:00,
2013-04-08 10:21:00,52.2,45.2,30.00,West,270,4.9,7.4,77,0.00,,SKC,0.00,VWS V14.01,2013-04-08 14:21:00,
2013-04-08 10:22:00,52.2,45.2,30.00,WNW,292,3.6,7.4,77,0.00,,SKC,0.00,VWS V14.01,2013-04-08 14:22:00,
2013-04-08 10:23:00,52.2,45.2,30.00,WNW,292,3.6,6.9,77,0.00,,SKC,0.00,VWS V14.01,2013-04-08 14:23:00,
2013-04-08 10:24:00,52.3,45.3,30.00,NW,315,2.9,6.9,77,0.00,,SKC,0.00,VWS V14.01,2013-04-08 14:24:00,
2013-04-08 10:25:00,52.3,45.3,30.00,WNW,292,5.8,6.9,77,0.00,,SKC,0.00,VWS V14.01,2013-04-08 14:25:00,
2013-04-08 10:26:00,52.3,45.3,30.00,West,270,5.6,6.9,77,0.00,,SKC,0.00,VWS V14.01,2013-04-08 14:26:00,
2013-04-08 10:27:00,52.5,45.5,30.00,West,270,6.0,6.9,77,0.00,,SKC,0.00,VWS V14.01,2013-04-08 14:27:00,
2013-04-08 10:28:00,52.5,45.5,30.00,WNW,292,2.7,6.9,77,0.00,,SKC,0.00,VWS V14.01,2013-04-08 14:28:00,
2013-04-08 10:29:00,52.7,45.7,30.00,WNW,292,4.0,6.5,77,0.00,,SKC,0.00,VWS V14.01,2013-04-08 14:29:00,
2013-04-08 10:30:00,52.7,45.7,30.00,WNW,292,3.8,6.0,77,0.00,,SKC,0.00,VWS V14.01,2013-04-08 14:30:00,
2013-04-08 10:31:00,52.9,45.9,30.00,WNW,292,4.3,6.0,77,0.00,,SKC,0.00,VWS V14.01,2013-04-08 14:31:00,
2013-04-08 10:32:00,52.9,45.9,30.00,WNW,292,4.0,6.0,77,0.00,,SKC,0.00,VWS V14.01,2013-04-08 14:32:00,
2013-04-08 10:33:00,52.9,45.9,30.00,West,270,6.3,6.3,77,0.00,,SKC,0.00,VWS V14.01,2013-04-08 14:33:00,
2013-04-08 10:34:00,52.9,45.9,30.00,West,270,6.7,6.7,77,0.00,,SKC,0.00,VWS V14.01,2013-04-08 14:34:00,
2013-04-08 10:35:00,53.2,46.2,30.00,WNW,292,6.0,6.7,77,0.00,,SKC,0.00,VWS V14.01,2013-04-08 14:35:00,
2013-04-08 10:36:00,53.4,46.4,30.00,West,270,4.9,6.7,77,0.00,,SKC,0.00,VWS V14.01,2013-04-08 14:36:00,
2013-04-08 10:37:00,53.8,46.4,30.00,NW,315,6.0,6.7,76,0.00,,SKC,0.00,VWS V14.01,2013-04-08 14:37:00,
2013-04-08 10:38:00,53.8,46.4,30.00,NW,315,4.0,6.7,76,0.00,,SKC,0.00,VWS V14.01,2013-04-08 14:38:00,
2013-04-08 10:39:00,54.0,46.9,30.00,WNW,292,6.3,6.7,77,0.00,,SKC,0.00,VWS V14.01,2013-04-08 14:39:00,
2013-04-08 10:40:00,54.1,46.8,30.00,West,270,6.3,6.7,76,0.00,,SKC,0.00,VWS V14.01,2013-04-08 14:40:00,
2013-04-08 10:41:00,54.1,46.4,30.00,NW,315,6.5,6.7,75,0.00,,SKC,0.00,VWS V14.01,2013-04-08 14:41:00,
2013-04-08 10:42:00,54.1,46.0,30.00,West,270,6.3,6.7,74,0.00,,SKC,0.00,VWS V14.01,2013-04-08 14:42:00,
2013-04-08 10:43:00,54.0,45.9,30.03,NW,315,5.6,6.7,74,0.00,,SKC,0.00,VWS V14.01,2013-04-08 14:43:00,
2013-04-08 10:44:00,54.0,45.9,30.03,WNW,292,6.3,6.7,74,0.00,,SKC,0.00,VWS V14.01,2013-04-08 14:44:00,
2013-04-08 10:45:00,54.0,45.9,30.03,West,270,3.8,6.7,74,0.00,,SKC,0.00,VWS V14.01,2013-04-08 14:45:00,
2013-04-08 10:46:00,54.0,45.9,30.03,West,270,5.8,6.7,74,0.00,,SKC,0.00,VWS V14.01,2013-04-08 14:46:00,
2013-04-08 10:47:00,54.0,45.9,30.03,WNW,292,7.2,7.2,74,0.00,,SKC,0.00,VWS V14.01,2013-04-08 14:47:00,
2013-04-08 10:48:00,54.0,45.9,30.03,WNW,292,5.8,7.2,74,0.00,,SKC,0.00,VWS V14.01,2013-04-08 14:48:00,
2013-04-08 10:49:00,54.0,45.9,30.03,NW,315,5.8,7.2,74,0.00,,SKC,0.00,VWS V14.01,2013-04-08 14:49:00,
2013-04-08 10:54:00,54.0,45.5,30.03,WNW,292,7.4,7.4,73,0.00,,SKC,0.00,VWS V14.01,2013-04-08 14:54:00,
2013-04-08 10:55:00,54.0,45.5,30.03,West,270,5.4,7.4,73,0.00,,SKC,0.00,VWS V14.01,2013-04-08 14:55:00,
2013-04-08 10:56:00,54.1,46.0,30.03,West,270,4.9,7.4,74,0.00,,SKC,0.00,VWS V14.01,2013-04-08 14:56:00,
2013-04-08 10:57:00,54.1,46.0,30.03,NW,315,3.1,7.4,74,0.00,,SKC,0.00,VWS V14.01,2013-04-08 14:57:00,
2013-04-08 10:58:00,54.3,46.2,30.03,West,270,5.8,7.4,74,0.00,,SKC,0.00,VWS V14.01,2013-04-08 14:58:00,
2013-04-08 10:59:00,54.3,45.9,30.03,West,270,4.0,7.4,73,0.00,,SKC,0.00,VWS V14.01,2013-04-08 14:59:00,
2013-04-08 11:00:00,54.3,45.9,30.03,West,270,5.6,7.4,73,0.00,,SKC,0.00,VWS V14.01,2013-04-08 15:00:00,
2013-04-08 11:01:00,54.3,45.9,30.03,West,270,5.6,7.4,73,0.00,,SKC,0.00,VWS V14.01,2013-04-08 15:01:00,
2013-04-08 11:02:00,54.5,46.4,30.03,WNW,292,4.3,7.4,74,0.00,,SKC,0.00,VWS V14.01,2013-04-08 15:02:00,
2013-04-08 11:03:00,54.5,46.4,30.03,NW,315,3.6,7.4,74,0.00,,SKC,0.00,VWS V14.01,2013-04-08 15:03:00,
2013-04-08 11:04:00,54.7,46.2,30.03,West,270,4.3,7.4,73,0.00,,SKC,0.00,VWS V14.01,2013-04-08 15:04:00,
2013-04-08 11:05:00,54.7,46.2,30.03,West,270,4.9,7.4,73,0.00,,SKC,0.00,VWS V14.01,2013-04-08 15:05:00,
2013-04-08 11:06:00,54.9,46.4,30.03,West,270,3.8,7.4,73,0.00,,SKC,0.00,VWS V14.01,2013-04-08 15:06:00,
2013-04-08 11:07:00,55.0,46.9,30.03,West,270,3.1,7.4,74,0.00,,SKC,0.00,VWS V14.01,2013-04-08 15:07:00,
2013-04-08 11:08:00,55.0,46.9,30.03,NW,315,4.0,7.4,74,0.00,,SKC,0.00,VWS V14.01,2013-04-08 15:08:00,
2013-04-08 11:09:00,55.2,46.7,30.03,West,270,3.1,7.4,73,0.00,,SKC,0.00,VWS V14.01,2013-04-08 15:09:00,
2013-04-08 11:10:00,55.4,46.5,30.03,WNW,292,3.8,7.4,72,0.00,,SKC,0.00,VWS V14.01,2013-04-08 15:10:00,
2013-04-08 11:11:00,55.4,46.5,30.03,West,270,2.9,7.4,72,0.00,,SKC,0.00,VWS V14.01,2013-04-08 15:11:00,
2013-04-08 11:12:00,55.6,46.7,30.03,West,270,4.0,7.4,72,0.00,,SKC,0.00,VWS V14.01,2013-04-08 15:12:00,
2013-04-08 11:13:00,55.6,46.3,30.03,West,270,3.4,7.4,71,0.00,,SKC,0.00,VWS V14.01,2013-04-08 15:13:00,
2013-04-08 11:14:00,55.6,46.3,30.03,West,270,3.4,5.8,71,0.00,,SKC,0.00,VWS V14.01,2013-04-08 15:14:00,
2013-04-08 11:15:00,55.8,46.1,30.03,NW,315,2.9,5.8,70,0.00,,SKC,0.00,VWS V14.01,2013-04-08 15:15:00,
2013-04-08 11:16:00,55.8,46.1,30.03,WNW,292,3.6,5.8,70,0.00,,SKC,0.00,VWS V14.01,2013-04-08 15:16:00,
2013-04-08 11:17:00,55.9,46.3,30.03,West,270,4.0,5.8,70,0.00,,SKC,0.00,VWS V14.01,2013-04-08 15:17:00,
2013-04-08 11:18:00,55.9,45.9,30.03,NW,315,2.9,5.6,69,0.00,,SKC,0.00,VWS V14.01,2013-04-08 15:18:00,
2013-04-08 11:19:00,55.9,45.9,30.03,WNW,292,3.4,5.6,69,0.00,,SKC,0.00,VWS V14.01,2013-04-08 15:19:00,
2013-04-08 11:20:00,55.9,45.9,30.03,WNW,292,3.6,5.6,69,0.00,,SKC,0.00,VWS V14.01,2013-04-08 15:20:00,
2013-04-08 11:21:00,56.1,45.7,30.03,West,270,2.5,4.9,68,0.00,,SKC,0.00,VWS V14.01,2013-04-08 15:21:00,
2013-04-08 11:22:00,56.3,45.9,30.03,West,270,4.3,4.9,68,0.00,,SKC,0.00,VWS V14.01,2013-04-08 15:22:00,
2013-04-08 11:23:00,56.3,45.9,30.03,NW,315,1.6,4.9,68,0.00,,SKC,0.00,VWS V14.01,2013-04-08 15:23:00,
2013-04-08 11:24:00,56.5,46.5,30.03,West,270,3.6,4.9,69,0.00,,SKC,0.00,VWS V14.01,2013-04-08 15:24:00,
2013-04-08 11:25:00,56.5,46.5,30.03,WSW,248,4.3,4.3,69,0.00,,SKC,0.00,VWS V14.01,2013-04-08 15:25:00,
2013-04-08 11:26:00,56.7,46.6,30.03,West,270,1.1,4.3,69,0.00,,SKC,0.00,VWS V14.01,2013-04-08 15:26:00,
2013-04-08 11:27:00,56.8,47.2,30.03,West,270,4.9,4.9,70,0.00,,SKC,0.00,VWS V14.01,2013-04-08 15:27:00,
2013-04-08 11:28:00,56.8,47.2,30.03,West,270,2.9,4.9,70,0.00,,SKC,0.00,VWS V14.01,2013-04-08 15:28:00,
2013-04-08 11:29:00,57.0,46.6,30.03,WSW,248,3.8,4.9,68,0.00,,SKC,0.00,VWS V14.01,2013-04-08 15:29:00,
2013-04-08 11:30:00,57.0,46.6,30.03,NW,315,2.5,4.9,68,0.00,,SKC,0.00,VWS V14.01,2013-04-08 15:30:00,
2013-04-08 11:31:00,57.0,46.2,30.03,WNW,292,2.5,4.9,67,0.00,,SKC,0.00,VWS V14.01,2013-04-08 15:31:00,
2013-04-08 11:32:00,57.2,45.6,30.03,West,270,4.3,4.9,65,0.00,,SKC,0.00,VWS V14.01,2013-04-08 15:32:00,
2013-04-08 11:34:00,57.2,45.6,30.03,North,0,2.0,4.9,65,0.00,,SKC,0.00,VWS V14.01,2013-04-08 15:34:00,
2013-04-08 11:35:00,57.2,45.2,30.03,NW,315,4.0,4.9,64,0.00,,SKC,0.00,VWS V14.01,2013-04-08 15:35:00,
2013-04-08 11:36:00,57.2,45.2,30.03,West,270,1.3,4.9,64,0.00,,SKC,0.00,VWS V14.01,2013-04-08 15:36:00,
2013-04-08 11:37:00,57.4,45.3,30.03,WSW,248,3.8,4.9,64,0.00,,SKC,0.00,VWS V14.01,2013-04-08 15:37:00,
2013-04-08 11:38:00,57.4,45.3,30.03,West,270,3.1,4.9,64,0.00,,SKC,0.00,VWS V14.01,2013-04-08 15:38:00,
2013-04-08 11:39:00,57.4,45.3,30.03,West,270,4.3,4.9,64,0.00,,SKC,0.00,VWS V14.01,2013-04-08 15:39:00,
2013-04-08 11:40:00,57.4,45.7,30.03,West,270,2.9,4.9,65,0.00,,SKC,0.00,VWS V14.01,2013-04-08 15:40:00,
2013-04-08 11:41:00,57.6,46.3,30.03,WNW,292,4.7,4.9,66,0.00,,SKC,0.00,VWS V14.01,2013-04-08 15:41:00,
2013-04-08 11:42:00,57.6,45.1,30.03,NW,315,2.7,4.9,63,0.00,,SKC,0.00,VWS V14.01,2013-04-08 15:42:00,
2013-04-08 11:43:00,57.6,45.1,30.03,NNW,338,4.3,4.9,63,0.00,,SKC,0.00,VWS V14.01,2013-04-08 15:43:00,
2013-04-08 11:44:00,57.6,45.1,30.03,West,270,3.8,4.9,63,0.00,,SKC,0.00,VWS V14.01,2013-04-08 15:44:00,
2013-04-08 11:45:00,57.6,45.1,30.03,West,270,3.6,4.9,63,0.00,,SKC,0.00,VWS V14.01,2013-04-08 15:45:00,
2013-04-08 11:46:00,57.6,45.5,30.03,West,270,3.6,4.9,64,0.00,,SKC,0.00,VWS V14.01,2013-04-08 15:46:00,
2013-04-08 11:47:00,57.6,44.7,30.03,West,270,2.5,4.9,62,0.00,,SKC,0.00,VWS V14.01,2013-04-08 15:47:00,
2013-04-08 11:48:00,57.6,44.7,30.03,NW,315,4.3,4.7,62,0.00,,SKC,0.00,VWS V14.01,2013-04-08 15:48:00,
2013-04-08 11:49:00,57.6,44.7,30.03,NW,315,3.8,4.7,62,0.00,,SKC,0.00,VWS V14.01,2013-04-08 15:49:00,
2013-04-08 11:50:00,57.6,44.7,30.03,WSW,248,3.8,4.7,62,0.00,,SKC,0.00,VWS V14.01,2013-04-08 15:50:00,
2013-04-08 11:51:00,57.6,44.7,30.03,West,270,3.6,4.7,62,0.00,,SKC,0.00,VWS V14.01,2013-04-08 15:51:00,
2013-04-08 11:52:00,57.7,44.4,30.03,NW,315,3.4,4.7,61,0.00,,SKC,0.00,VWS V14.01,2013-04-08 15:52:00,
2013-04-08 11:53:00,57.7,44.0,30.03,NNW,338,2.5,4.7,60,0.00,,SKC,0.00,VWS V14.01,2013-04-08 15:53:00,
2013-04-08 11:54:00,57.9,44.1,30.03,North,0,3.6,4.7,60,0.00,,SKC,0.00,VWS V14.01,2013-04-08 15:54:00,
2013-04-08 11:55:00,57.7,44.4,30.03,NW,315,3.8,4.7,61,0.00,,SKC,0.00,VWS V14.01,2013-04-08 15:55:00,
2013-04-08 11:56:00,57.9,44.1,30.03,NW,315,2.9,4.7,60,0.00,,SKC,0.00,VWS V14.01,2013-04-08 15:56:00,
2013-04-08 11:57:00,57.9,43.7,30.03,WNW,292,2.9,4.7,59,0.00,,SKC,0.00,VWS V14.01,2013-04-08 15:57:00,
2013-04-08 11:58:00,57.9,44.1,30.03,WNW,292,3.1,4.7,60,0.00,,SKC,0.00,VWS V14.01,2013-04-08 15:58:00,
2013-04-08 11:59:00,57.9,44.6,30.03,WNW,292,5.4,5.4,61,0.00,,SKC,0.00,VWS V14.01,2013-04-08 15:59:00,
2013-04-08 12:00:00,57.9,43.2,30.03,West,270,2.7,5.4,58,0.00,,SKC,0.00,VWS V14.01,2013-04-08 16:00:00,
2013-04-08 12:01:00,57.9,43.2,30.03,NW,315,3.4,5.4,58,0.00,,SKC,0.00,VWS V14.01,2013-04-08 16:01:00,
2013-04-08 12:02:00,57.9,43.2,30.03,NW,315,3.1,5.4,58,0.00,,SKC,0.00,VWS V14.01,2013-04-08 16:02:00,
2013-04-08 12:03:00,57.9,42.8,30.03,WNW,292,3.4,5.4,57,0.00,,SKC,0.00,VWS V14.01,2013-04-08 16:03:00,
2013-04-08 12:04:00,57.9,43.7,30.03,West,270,4.3,5.4,59,0.00,,SKC,0.00,VWS V14.01,2013-04-08 16:04:00,
2013-04-08 12:05:00,57.9,43.2,30.03,West,270,4.9,5.4,58,0.00,,SKC,0.00,VWS V14.01,2013-04-08 16:05:00,
2013-04-08 12:06:00,58.1,43.4,30.03,West,270,3.4,5.4,58,0.00,,SKC,0.00,VWS V14.01,2013-04-08 16:06:00,
2013-04-08 12:07:00,58.1,43.9,30.03,NW,315,4.3,5.4,59,0.00,,SKC,0.00,VWS V14.01,2013-04-08 16:07:00,
2013-04-08 12:08:00,58.1,43.4,30.03,NW,315,3.8,5.4,58,0.00,,SKC,0.00,VWS V14.01,2013-04-08 16:08:00,
2013-04-08 12:09:00,58.3,43.6,30.03,NW,315,3.4,5.4,58,0.00,,SKC,0.00,VWS V14.01,2013-04-08 16:09:00,
2013-04-08 12:10:00,58.3,43.6,30.03,NW,315,2.7,5.4,58,0.00,,SKC,0.00,VWS V14.01,2013-04-08 16:10:00,
2013-04-08 12:11:00,58.3,43.1,30.03,NW,315,4.0,5.4,57,0.00,,SKC,0.00,VWS V14.01,2013-04-08 16:11:00,
2013-04-08 12:12:00,58.5,43.8,30.03,WNW,292,5.6,5.6,58,0.00,,SKC,0.00,VWS V14.01,2013-04-08 16:12:00,
2013-04-08 12:13:00,58.5,43.8,30.03,WNW,292,5.6,5.6,58,0.00,,SKC,0.00,VWS V14.01,2013-04-08 16:13:00,
2013-04-08 12:25:00,59.2,43.5,30.03,West,270,4.0,5.6,56,0.00,,SKC,0.00,VWS V14.01,2013-04-08 16:25:00,
2013-04-08 12:26:00,59.4,43.2,30.03,West,270,3.1,5.6,55,0.00,,SKC,0.00,VWS V14.01,2013-04-08 16:26:00,
2013-04-08 12:27:00,59.4,43.7,30.03,WSW,248,3.4,5.6,56,0.00,,SKC,0.00,VWS V14.01,2013-04-08 16:27:00,
2013-04-08 12:28:00,59.4,44.1,30.03,West,270,3.1,5.6,57,0.00,,SKC,0.00,VWS V14.01,2013-04-08 16:28:00,
2013-04-08 12:29:00,59.5,44.8,30.03,West,270,3.6,5.6,58,0.00,,SKC,0.00,VWS V14.01,2013-04-08 16:29:00,
2013-04-08 12:30:00,59.7,44.5,30.03,WSW,248,2.2,5.6,57,0.00,,SKC,0.00,VWS V14.01,2013-04-08 16:30:00,
2013-04-08 12:31:00,59.7,44.9,30.03,West,270,3.1,5.6,58,0.00,,SKC,0.00,VWS V14.01,2013-04-08 16:31:00,
2013-04-08 12:32:00,59.7,44.9,30.03,West,270,3.4,5.6,58,0.00,,SKC,0.00,VWS V14.01,2013-04-08 16:32:00,
2013-04-08 12:33:00,59.9,45.1,30.03,SW,225,2.5,5.6,58,0.00,,SKC,0.00,VWS V14.01,2013-04-08 16:33:00,
2013-04-08 12:34:00,60.1,45.3,30.03,SW,225,2.9,5.6,58,0.00,,SKC,0.00,VWS V14.01,2013-04-08 16:34:00,
2013-04-08 12:35:00,60.1,45.3,30.03,West,270,3.4,5.6,58,0.00,,SKC,0.00,VWS V14.01,2013-04-08 16:35:00,
2013-04-08 12:36:00,60.3,45.4,30.03,NW,315,2.7,5.6,58,0.00,,SKC,0.00,VWS V14.01,2013-04-08 16:36:00,
2013-04-08 12:37:00,60.3,44.0,30.03,NW,315,4.5,5.6,55,0.00,,SKC,0.00,VWS V14.01,2013-04-08 16:37:00,
2013-04-08 12:38:00,60.3,44.0,30.03,West,270,3.4,5.6,55,0.00,,SKC,0.00,VWS V14.01,2013-04-08 16:38:00,
2013-04-08 12:39:00,60.3,43.6,30.03,WNW,292,6.0,6.0,54,0.00,,SKC,0.00,VWS V14.01,2013-04-08 16:39:00,
2013-04-08 12:40:00,60.3,43.1,30.03,NW,315,3.4,6.0,53,0.00,,SKC,0.00,VWS V14.01,2013-04-08 16:40:00,
2013-04-08 12:41:00,60.3,43.1,30.03,West,270,3.6,6.0,53,0.00,,SKC,0.00,VWS V14.01,2013-04-08 16:41:00,
2013-04-08 12:42:00,60.3,43.1,30.03,West,270,4.3,6.0,53,0.00,,SKC,0.00,VWS V14.01,2013-04-08 16:42:00,
2013-04-08 12:43:00,60.3,43.6,30.00,SW,225,3.4,6.0,54,0.00,,SKC,0.00,VWS V14.01,2013-04-08 16:43:00,
2013-04-08 12:44:00,60.4,44.2,30.00,West,270,3.6,6.0,55,0.00,,SKC,0.00,VWS V14.01,2013-04-08 16:44:00,
2013-04-08 12:45:00,60.4,43.7,30.00,NW,315,3.6,6.0,54,0.00,,SKC,0.00,VWS V14.01,2013-04-08 16:45:00,
2013-04-08 12:46:00,60.4,43.2,30.00,WNW,292,4.0,6.0,53,0.00,,SKC,0.00,VWS V14.01,2013-04-08 16:46:00,
2013-04-08 12:47:00,60.4,43.7,30.00,NW,315,4.0,6.0,54,0.00,,SKC,0.00,VWS V14.01,2013-04-08 16:47:00,
2013-04-08 12:48:00,60.6,44.4,30.00,NW,315,5.4,6.0,55,0.00,,SKC,0.00,VWS V14.01,2013-04-08 16:48:00,
2013-04-08 12:49:00,60.6,43.9,30.00,WNW,292,3.4,6.0,54,0.00,,SKC,0.00,VWS V14.01,2013-04-08 16:49:00,
2013-04-08 12:50:00,60.6,43.9,30.00,WSW,248,4.3,6.0,54,0.00,,SKC,0.00,VWS V14.01,2013-04-08 16:50:00,
2013-04-08 12:51:00,60.6,43.4,30.00,SW,225,4.9,6.0,53,0.00,,SKC,0.00,VWS V14.01,2013-04-08 16:51:00,
2013-04-08 12:52:00,60.8,44.1,30.00,SW,225,3.6,6.0,54,0.00,,SKC,0.00,VWS V14.01,2013-04-08 16:52:00,
2013-04-08 12:53:00,61.2,44.9,30.00,West,270,4.0,6.0,55,0.00,,SKC,0.00,VWS V14.01,2013-04-08 16:53:00,
2013-04-08 12:54:00,61.2,44.9,30.00,SW,225,4.0,6.0,55,0.00,,SKC,0.00,VWS V14.01,2013-04-08 16:54:00,
2013-04-08 12:55:00,61.3,45.5,30.00,SW,225,4.0,6.0,56,0.00,,SKC,0.00,VWS V14.01,2013-04-08 16:55:00,
2013-04-08 12:56:00,61.5,45.2,30.00,West,270,4.9,6.0,55,0.00,,SKC,0.00,VWS V14.01,2013-04-08 16:56:00,
2013-04-08 12:57:00,61.5,44.2,30.00,West,270,5.4,6.0,53,0.00,,SKC,0.00,VWS V14.01,2013-04-08 16:57:00,
2013-04-08 12:58:00,61.5,44.2,30.03,West,270,6.0,6.0,53,0.00,,SKC,0.00,VWS V14.01,2013-04-08 16:58:00,
2013-04-08 12:59:00,61.5,43.8,30.03,West,270,5.4,6.0,52,0.00,,SKC,0.00,VWS V14.01,2013-04-08 16:59:00,
2013-04-08 13:00:00,61.7,44.9,30.03,WSW,248,4.9,6.0,54,0.00,,SKC,0.00,VWS V14.01,2013-04-08 17:00:00,
2013-04-08 13:01:00,61.7,44.4,30.03,West,270,5.6,6.0,53,0.00,,SKC,0.00,VWS V14.01,2013-04-08 17:01:00,
2013-04-08 13:02:00,61.7,44.4,30.03,West,270,4.3,6.0,53,0.00,,SKC,0.00,VWS V14.01,2013-04-08 17:02:00,
2013-04-08 13:03:00,61.7,44.4,30.03,WSW,248,4.0,6.0,53,0.00,,SKC,0.00,VWS V14.01,2013-04-08 17:03:00,
2013-04-08 13:04:00,61.7,43.9,30.03,West,270,5.6,6.0,52,0.00,,SKC,0.00,VWS V14.01,2013-04-08 17:04:00,
2013-04-08 13:05:00,61.7,43.9,30.03,WSW,248,5.6,6.0,52,0.00,,SKC,0.00,VWS V14.01,2013-04-08 17:05:00,
2013-04-08 13:08:00,61.9,44.1,30.03,WSW,248,5.4,6.0,52,0.00,,SKC,0.00,VWS V14.01,2013-04-08 17:08:00,
2013-04-08 13:09:00,61.9,44.1,30.03,NW,315,5.8,6.0,52,0.00,,SKC,0.00,VWS V14.01,2013-04-08 17:09:00,
2013-04-08 13:10:00,61.9,44.1,30.03,West,270,5.6,6.0,52,0.00,,SKC,0.00,VWS V14.01,2013-04-08 17:10:00,
2013-04-08 13:11:00,61.9,43.6,30.03,West,270,4.3,6.0,51,0.00,,SKC,0.00,VWS V14.01,2013-04-08 17:11:00,
2013-04-08 13:12:00,62.1,43.7,30.03,WSW,248,4.5,6.0,51,0.00,,SKC,0.00,VWS V14.01,2013-04-08 17:12:00,
2013-04-08 13:13:00,62.1,43.7,30.00,WSW,248,5.6,6.0,51,0.00,,SKC,0.00,VWS V14.01,2013-04-08 17:13:00,
2013-04-08 13:14:00,62.1,44.2,30.00,WSW,248,3.8,6.0,52,0.00,,SKC,0.00,VWS V14.01,2013-04-08 17:14:00,
2013-04-08 13:15:00,62.1,43.2,30.00,West,270,4.7,6.0,50,0.00,,SKC,0.00,VWS V14.01,2013-04-08 17:15:00,
2013-04-08 13:16:00,62.1,43.7,30.00,West,270,3.4,6.0,51,0.00,,SKC,0.00,VWS V14.01,2013-04-08 17:16:00,
2013-04-08 13:17:00,62.1,43.7,30.00,West,270,3.1,6.0,51,0.00,,SKC,0.00,VWS V14.01,2013-04-08 17:17:00,
2013-04-08 13:18:00,62.1,43.7,30.00,West,270,4.9,6.0,51,0.00,,SKC,0.00,VWS V14.01,2013-04-08 17:18:00,
2013-04-08 13:19:00,62.1,43.7,30.00,SW,225,3.6,6.0,51,0.00,,SKC,0.00,VWS V14.01,2013-04-08 17:19:00,
2013-04-08 13:20:00,62.1,43.7,30.00,West,270,5.8,5.8,51,0.00,,SKC,0.00,VWS V14.01,2013-04-08 17:20:00,
2013-04-08 13:21:00,62.2,43.9,30.00,West,270,5.6,5.8,51,0.00,,SKC,0.00,VWS V14.01,2013-04-08 17:21:00,
2013-04-08 13:22:00,62.2,44.4,30.00,West,270,7.6,7.6,52,0.00,,SKC,0.00,VWS V14.01,2013-04-08 17:22:00,
2013-04-08 13:23:00,62.2,43.4,30.00,WSW,248,3.6,7.6,50,0.00,,SKC,0.00,VWS V14.01,2013-04-08 17:23:00,
2013-04-08 13:24:00,62.4,43.5,30.00,WSW,248,4.3,7.6,50,0.00,,SKC,0.00,VWS V14.01,2013-04-08 17:24:00,
2013-04-08 13:25:00,62.4,44.1,30.00,WSW,248,5.6,7.6,51,0.00,,SKC,0.00,VWS V14.01,2013-04-08 17:25:00,
2013-04-08 13:26:00,62.4,44.1,30.00,West,270,5.4,7.6,51,0.00,,SKC,0.00,VWS V14.01,2013-04-08 17:26:00,
2013-04-08 13:27:00,62.6,44.2,30.00,WSW,248,4.0,7.6,51,0.00,,SKC,0.00,VWS V14.01,2013-04-08 17:27:00,
2013-04-08 13:28:00,62.6,43.7,30.03,NW,315,5.4,7.6,50,0.00,,SKC,0.00,VWS V14.01,2013-04-08 17:28:00,
2013-04-08 13:29:00,62.6,43.7,30.03,West,270,6.0,7.6,50,0.00,,SKC,0.00,VWS V14.01,2013-04-08 17:29:00,
2013-04-08 13:30:00,62.6,43.7,30.03,WNW,292,5.4,7.6,50,0.00,,SKC,0.00,VWS V14.01,2013-04-08 17:30:00,
2013-04-08 13:31:00,62.8,43.9,30.03,West,270,3.8,7.6,50,0.00,,SKC,0.00,VWS V14.01,2013-04-08 17:31:00,
2013-04-08 13:32:00,62.8,43.9,30.03,SW,225,4.9,7.6,50,0.00,,SKC,0.00,VWS V14.01,2013-04-08 17:32:00,
2013-04-08 13:33:00,62.8,43.4,30.03,NW,315,3.8,7.6,49,0.00,,SKC,0.00,VWS V14.01,2013-04-08 17:33:00,
2013-04-08 13:34:00,62.8,43.9,30.03,NW,315,4.9,7.6,50,0.00,,SKC,0.00,VWS V14.01,2013-04-08 17:34:00,
2013-04-08 13:35:00,62.8,43.9,30.03,West,270,4.9,7.6,50,0.00,,SKC,0.00,VWS V14.01,2013-04-08 17:35:00,
2013-04-08 13:36:00,62.8,43.9,30.03,West,270,4.7,7.6,50,0.00,,SKC,0.00,VWS V14.01,2013-04-08 17:36:00,
2013-04-08 13:37:00,63.0,43.5,30.03,WSW,248,4.0,7.6,49,0.00,,SKC,0.00,VWS V14.01,2013-04-08 17:37:00,
2013-04-08 13:38:00,63.0,43.5,30.03,West,270,6.3,7.6,49,0.00,,SKC,0.00,VWS V14.01,2013-04-08 17:38:00,
2013-04-08 13:39:00,63.0,43.5,30.03,NW,315,4.9,7.6,49,0.00,,SKC,0.00,VWS V14.01,2013-04-08 17:39:00,
2013-04-08 13:40:00,63.0,43.0,30.03,West,270,4.0,7.6,48,0.00,,SKC,0.00,VWS V14.01,2013-04-08 17:40:00,
2013-04-08 13:41:00,63.0,43.0,30.03,West,270,3.6,7.6,48,0.00,,SKC,0.00,VWS V14.01,2013-04-08 17:41:00,
2013-04-08 13:42:00,63.0,43.5,30.03,WNW,292,6.7,6.7,49,0.00,,SKC,0.00,VWS V14.01,2013-04-08 17:42:00,
2013-04-08 13:43:00,63.0,42.4,30.00,NW,315,5.6,6.7,47,0.00,,SKC,0.00,VWS V14.01,2013-04-08 17:43:00,
2013-04-08 13:44:00,63.0,42.4,30.00,WNW,292,5.6,6.7,47,0.00,,SKC,0.00,VWS V14.01,2013-04-08 17:44:00,
2013-04-08 13:45:00,63.0,43.0,30.00,West,270,4.3,6.7,48,0.00,,SKC,0.00,VWS V14.01,2013-04-08 17:45:00,
2013-04-08 13:46:00,63.1,43.2,30.00,WSW,248,5.6,6.7,48,0.00,,SKC,0.00,VWS V14.01,2013-04-08 17:46:00,
2013-04-08 13:47:00,63.1,43.7,30.00,West,270,5.6,6.7,49,0.00,,SKC,0.00,VWS V14.01,2013-04-08 17:47:00,
2013-04-08 13:48:00,63.1,43.7,30.00,WSW,248,5.4,6.7,49,0.00,,SKC,0.00,VWS V14.01,2013-04-08 17:48:00,
2013-04-08 14:00:00,63.5,42.9,30.00,West,270,5.4,6.7,47,0.00,,SKC,0.00,VWS V14.01,2013-04-08 18:00:00,
2013-04-08 14:01:00,63.5,42.9,30.00,West,270,3.8,6.7,47,0.00,,SKC,0.00,VWS V14.01,2013-04-08 18:01:00,
2013-04-08 14:02:00,63.5,42.4,30.00,SW,225,4.0,6.7,46,0.00,,SKC,0.00,VWS V14.01,2013-04-08 18:02:00,
2013-04-08 14:03:00,63.5,42.9,30.00,West,270,4.9,6.7,47,0.00,,SKC,0.00,VWS V14.01,2013-04-08 18:03:00,
2013-04-08 14:04:00,63.5,42.9,30.00,WSW,248,3.1,6.7,47,0.00,,SKC,0.00,VWS V14.01,2013-04-08 18:04:00,
2013-04-08 14:05:00,63.7,43.1,30.00,WSW,248,5.4,6.7,47,0.00,,SKC,0.00,VWS V14.01,2013-04-08 18:05:00,
2013-04-08 14:06:00,63.7,43.6,30.00,West,270,3.6,6.7,48,0.00,,SKC,0.00,VWS V14.01,2013-04-08 18:06:00,
2013-04-08 14:07:00,63.7,43.1,30.00,WSW,248,4.3,6.7,47,0.00,,SKC,0.00,VWS V14.01,2013-04-08 18:07:00,
2013-04-08 14:08:00,63.7,43.1,30.00,West,270,3.8,6.7,47,0.00,,SKC,0.00,VWS V14.01,2013-04-08 18:08:00,
2013-04-08 14:09:00,63.9,43.3,30.00,SW,225,7.4,7.4,47,0.00,,SKC,0.00,VWS V14.01,2013-04-08 18:09:00,
2013-04-08 14:10:00,63.9,43.3,30.00,West,270,5.4,7.4,47,0.00,,SKC,0.00,VWS V14.01,2013-04-08 18:10:00,
2013-04-08 14:11:00,63.9,43.3,30.00,West,270,3.4,7.4,47,0.00,,SKC,0.00,VWS V14.01,2013-04-08 18:11:00,
2013-04-08 14:12:00,63.9,43.3,30.00,West,270,4.7,7.4,47,0.00,,SKC,0.00,VWS V14.01,2013-04-08 18:12:00,
2013-04-08 14:13:00,63.9,43.3,30.00,WNW,292,5.6,7.4,47,0.00,,SKC,0.00,VWS V14.01,2013-04-08 18:13:00,
2013-04-08 14:14:00,63.9,42.7,30.00,WNW,292,4.7,7.4,46,0.00,,SKC,0.00,VWS V14.01,2013-04-08 18:14:00,
2013-04-08 14:15:00,63.9,42.7,30.00,NW,315,4.9,7.4,46,0.00,,SKC,0.00,VWS V14.01,2013-04-08 18:15:00,
2013-04-08 14:16:00,63.9,42.7,30.00,NW,315,5.4,7.4,46,0.00,,SKC,0.00,VWS V14.01,2013-04-08 18:16:00,
2013-04-08 14:17:00,63.9,42.7,30.00,West,270,5.4,7.4,46,0.00,,SKC,0.00,VWS V14.01,2013-04-08 18:17:00,
2013-04-08 14:18:00,63.9,42.7,30.00,WSW,248,6.0,7.4,46,0.00,,SKC,0.00,VWS V14.01,2013-04-08 18:18:00,
2013-04-08 14:19:00,64.0,42.9,30.00,West,270,3.6,7.4,46,0.00,,SKC,0.00,VWS V14.01,2013-04-08 18:19:00,
2013-04-08 14:20:00,64.0,43.4,30.00,SW,225,5.8,7.4,47,0.00,,SKC,0.00,VWS V14.01,2013-04-08 18:20:00,
2013-04-08 14:21:00,64.0,42.9,30.00,West,270,3.1,7.4,46,0.00,,SKC,0.00,VWS V14.01,2013-04-08 18:21:00,
2013-04-08 14:22:00,64.0,43.4,30.00,West,270,3.8,7.4,47,0.00,,SKC,0.00,VWS V14.01,2013-04-08 18:22:00,
2013-04-08 14:23:00,64.0,43.4,30.00,West,270,8.1,8.1,47,0.00,,SKC,0.00,VWS V14.01,2013-04-08 18:23:00,
2013-04-08 14:24:00,64.2,43.6,30.00,West,270,6.0,8.1,47,0.00,,SKC,0.00,VWS V14.01,2013-04-08 18:24:00,
2013-04-08 14:25:00,64.2,43.0,30.00,West,270,4.0,8.1,46,0.00,,SKC,0.00,VWS V14.01,2013-04-08 18:25:00,
2013-04-08 14:26:00,64.2,43.0,30.00,SW,225,5.6,8.1,46,0.00,,SKC,0.00,VWS V14.01,2013-04-08 18:26:00,
2013-04-08 14:27:00,64.2,43.0,30.00,West,270,6.3,8.1,46,0.00,,SKC,0.00,VWS V14.01,2013-04-08 18:27:00,
2013-04-08 14:28:00,64.2,43.6,29.97,West,270,6.0,8.1,47,0.00,,SKC,0.00,VWS V14.01,2013-04-08 18:28:00,
2013-04-08 14:29:00,64.2,43.0,29.97,West,270,6.9,8.1,46,0.00,,SKC,0.00,VWS V14.01,2013-04-08 18:29:00,
2013-04-08 14:30:00,64.2,43.0,29.97,West,270,3.6,8.1,46,0.00,,SKC,0.00,VWS V14.01,2013-04-08 18:30:00,
2013-04-08 14:31:00,64.4,42.6,29.97,West,270,6.3,8.1,45,0.00,,SKC,0.00,VWS V14.01,2013-04-08 18:31:00,
2013-04-08 14:32:00,64.2,42.5,29.97,West,270,6.3,8.1,45,0.00,,SKC,0.00,VWS V14.01,2013-04-08 18:32:00,
2013-04-08 14:33:00,64.4,42.6,29.97,West,270,6.0,8.1,45,0.00,,SKC,0.00,VWS V14.01,2013-04-08 18:33:00,
2013-04-08 14:34:00,64.2,43.0,29.97,West,270,5.8,8.1,46,0.00,,SKC,0.00,VWS V14.01,2013-04-08 18:34:00,
2013-04-08 14:35:00,64.4,42.6,29.97,West,270,5.8,8.1,45,0.00,,SKC,0.00,VWS V14.01,2013-04-08 18:35:00,
2013-04-08 14:36:00,64.4,42.6,29.97,WNW,292,5.8,8.1,45,0.00,,SKC,0.00,VWS V14.01,2013-04-08 18:36:00,
2013-04-08 14:37:00,64.4,42.6,29.97,WSW,248,5.8,8.1,45,0.00,,SKC,0.00,VWS V14.01,2013-04-08 18:37:00,
2013-04-08 14:38:00,64.4,42.6,29.97,West,270,3.1,8.1,45,0.00,,SKC,0.00,VWS V14.01,2013-04-08 18:38:00,
2013-04-08 14:39:00,64.4,42.6,29.97,WSW,248,6.5,8.1,45,0.00,,SKC,0.00,VWS V14.01,2013-04-08 18:39:00,
2013-04-08 14:52:00,64.6,42.2,29.97,West,270,5.6,8.1,44,0.00,,SKC,0.00,VWS V14.01,2013-04-08 18:52:00,
2013-04-08 14:53:00,64.4,42.0,29.97,West,270,6.5,8.1,44,0.00,,SKC,0.00,VWS V14.01,2013-04-08 18:53:00,
2013-04-08 14:54:00,64.4,42.0,29.97,WNW,292,5.4,8.1,44,0.00,,SKC,0.00,VWS V14.01,2013-04-08 18:54:00,
2013-04-08 14:55:00,64.4,42.0,29.97,WNW,292,6.5,6.9,44,0.00,,SKC,0.00,VWS V14.01,2013-04-08 18:55:00,
2013-04-08 14:56:00,64.4,42.6,29.97,WNW,292,3.6,6.9,45,0.00,,SKC,0.00,VWS V14.01,2013-04-08 18:56:00,
2013-04-08 14:57:00,64.4,42.0,29.97,WNW,292,4.9,6.9,44,0.00,,SKC,0.00,VWS V14.01,2013-04-08 18:57:00,
2013-04-08 14:58:00,64.4,42.0,29.97,West,270,3.4,6.9,44,0.00,,SKC,0.00,VWS V14.01,2013-04-08 18:58:00,
2013-04-08 14:59:00,64.4,42.0,29.97,WNW,292,7.4,7.4,44,0.00,,SKC,0.00,VWS V14.01,2013-04-08 18:59:00,
2013-04-08 15:00:00,64.4,42.0,29.97,NW,315,6.5,7.4,44,0.00,,SKC,0.00,VWS V14.01,2013-04-08 19:00:00,
2013-04-08 15:01:00,64.2,41.9,29.97,NW,315,6.5,7.4,44,0.00,,SKC,0.00,VWS V14.01,2013-04-08 19:01:00,
2013-04-08 15:02:00,64.4,42.0,29.97,WNW,292,6.0,7.4,44,0.00,,SKC,0.00,VWS V14.01,2013-04-08 19:02:00,
2013-04-08 15:03:00,64.4,42.0,29.97,NW,315,5.4,7.4,44,0.00,,SKC,0.00,VWS V14.01,2013-04-08 19:03:00,
2013-04-08 15:04:00,64.4,42.0,29.97,WNW,292,6.3,7.4,44,0.00,,SKC,0.00,VWS V14.01,2013-04-08 19:04:00,
2013-04-08 15:05:00,64.6,42.2,29.97,WNW,292,4.9,7.4,44,0.00,,SKC,0.00,VWS V14.01,2013-04-08 19:05:00,
2013-04-08 15:06:00,64.6,42.2,29.97,West,270,5.6,7.4,44,0.00,,SKC,0.00,VWS V14.01,2013-04-08 19:06:00,
2013-04-08 15:07:00,64.6,42.2,29.97,West,270,4.0,7.4,44,0.00,,SKC,0.00,VWS V14.01,2013-04-08 19:07:00,
2013-04-08 15:08:00,64.8,42.4,29.97,West,270,5.4,7.4,44,0.00,,SKC,0.00,VWS V14.01,2013-04-08 19:08:00,
2013-04-08 15:09:00,64.8,42.4,29.97,West,270,4.0,7.4,44,0.00,,SKC,0.00,VWS V14.01,2013-04-08 19:09:00,
2013-04-08 15:10:00,64.9,42.5,29.97,West,270,6.5,7.4,44,0.00,,SKC,0.00,VWS V14.01,2013-04-08 19:10:00,
2013-04-08 15:11:00,64.9,42.5,29.97,NW,315,5.6,7.4,44,0.00,,SKC,0.00,VWS V14.01,2013-04-08 19:11:00,
2013-04-08 15:12:00,65.1,42.7,29.97,NW,315,4.0,7.4,44,0.00,,SKC,0.00,VWS V14.01,2013-04-08 19:12:00,
2013-04-08 15:13:00,65.1,42.7,29.97,West,270,5.8,7.4,44,0.00,,SKC,0.00,VWS V14.01,2013-04-08 19:13:00,
2013-04-08 15:14:00,65.3,42.8,29.97,WNW,292,4.3,7.4,44,0.00,,SKC,0.00,VWS V14.01,2013-04-08 19:14:00,
2013-04-08 15:15:00,65.3,42.8,29.97,WNW,292,5.6,7.4,44,0.00,,SKC,0.00,VWS V14.01,2013-04-08 19:15:00,
2013-04-08 15:16:00,65.3,42.2,29.97,NW,315,5.8,7.4,43,0.00,,SKC,0.00,VWS V14.01,2013-04-08 19:16:00,
2013-04-08 15:17:00,65.3,42.2,29.97,WNW,292,4.7,7.4,43,0.00,,SKC,0.00,VWS V14.01,2013-04-08 19:17:00,
2013-04-08 15:18:00,65.3,42.8,29.97,West,270,4.5,7.4,44,0.00,,SKC,0.00,VWS V14.01,2013-04-08 19:18:00,
2013-04-08 15:19:00,65.3,42.8,29.97,NW,315,4.3,6.5,44,0.00,,SKC,0.00,VWS V14.01,2013-04-08 19:19:00,
2013-04-08 15:20:00,65.3,42.8,29.97,NW,315,4.3,6.5,44,0.00,,SKC,0.00,VWS V14.01,2013-04-08 19:20:00,
2013-04-08 15:21:00,65.3,42.8,29.97,West,270,4.0,6.5,44,0.00,,SKC,0.00,VWS V14.01,2013-04-08 19:21:00,
2013-04-08 15:22:00,65.3,42.8,29.97,NW,315,4.7,6.5,44,0.00,,SKC,0.00,VWS V14.01,2013-04-08 19:22:00,
2013-04-08 15:23:00,65.3,42.8,29.97,West,270,3.6,6.5,44,0.00,,SKC,0.00,VWS V14.01,2013-04-08 19:23:00,
2013-04-08 15:24:00,65.5,43.0,29.97,West,270,4.0,6.5,44,0.00,,SKC,0.00,VWS V14.01,2013-04-08 19:24:00,
2013-04-08 15:25:00,65.5,43.0,29.97,WNW,292,5.4,6.5,44,0.00,,SKC,0.00,VWS V14.01,2013-04-08 19:25:00,
2013-04-08 15:26:00,65.5,42.4,29.97,NW,315,4.0,6.5,43,0.00,,SKC,0.00,VWS V14.01,2013-04-08 19:26:00,
2013-04-08 15:27:00,65.5,42.4,29.97,WNW,292,2.9,6.5,43,0.00,,SKC,0.00,VWS V14.01,2013-04-08 19:27:00,
2013-04-08 15:28:00,65.5,42.4,29.94,WNW,292,3.4,6.5,43,0.00,,SKC,0.00,VWS V14.01,2013-04-08 19:28:00,
2013-04-08 15:29:00,65.5,42.4,29.94,WNW,292,5.4,6.5,43,0.00,,SKC,0.00,VWS V14.01,2013-04-08 19:29:00,
2013-04-08 15:30:00,65.5,43.0,29.94,NW,315,6.3,6.3,44,0.00,,SKC,0.00,VWS V14.01,2013-04-08 19:30:00,
2013-04-08 15:31:00,65.5,43.0,29.94,NNW,338,3.6,6.3,44,0.00,,SKC,0.00,VWS V14.01,2013-04-08 19:31:00,
2013-04-08 15:32:00,65.5,42.4,29.94,NNW,338,5.4,6.3,43,0.00,,SKC,0.00,VWS V14.01,2013-04-08 19:32:00,
2013-04-08 15:47:00,64.8,42.4,29.94,East,90,0.0,6.3,44,0.00,,SKC,0.00,VWS V14.01,2013-04-08 19:47:00,
2013-04-08 15:48:00,64.6,42.8,29.94,WSW,248,2.7,6.3,45,0.00,,SKC,0.00,VWS V14.01,2013-04-08 19:48:00,
2013-04-08 15:49:00,64.6,42.8,29.94,SW,225,3.8,6.3,45,0.00,,SKC,0.00,VWS V14.01,2013-04-08 19:49:00,
2013-04-08 15:50:00,64.6,42.8,29.94,West,270,3.1,6.3,45,0.00,,SKC,0.00,VWS V14.01,2013-04-08 19:50:00,
2013-04-08 15:51:00,64.4,43.2,29.94,SSE,158,4.7,6.3,46,0.00,,SKC,0.00,VWS V14.01,2013-04-08 19:51:00,
2013-04-08 15:52:00,64.4,43.2,29.94,East,90,3.6,6.3,46,0.00,,SKC,0.00,VWS V14.01,2013-04-08 19:52:00,
2013-04-08 15:53:00,64.4,43.2,29.94,SE,135,3.4,6.3,46,0.00,,SKC,0.00,VWS V14.01,2013-04-08 19:53:00,
2013-04-08 15:54:00,64.4,43.2,29.94,SE,135,1.3,6.3,46,0.00,,SKC,0.00,VWS V14.01,2013-04-08 19:54:00,
2013-04-08 15:55:00,64.4,43.2,29.94,SE,135,3.4,6.3,46,0.00,,SKC,0.00,VWS V14.01,2013-04-08 19:55:00,
2013-04-08 15:56:00,64.2,43.0,29.94,SE,135,5.4,6.3,46,0.00,,SKC,0.00,VWS V14.01,2013-04-08 19:56:00,
2013-04-08 15:57:00,64.2,43.0,29.94,SE,135,4.9,6.3,46,0.00,,SKC,0.00,VWS V14.01,2013-04-08 19:57:00,
2013-04-08 15:58:00,64.2,43.6,29.97,SE,135,4.3,6.3,47,0.00,,SKC,0.00,VWS V14.01,2013-04-08 19:58:00,
2013-04-08 15:59:00,64.2,43.6,29.97,South,180,2.0,6.3,47,0.00,,SKC,0.00,VWS V14.01,2013-04-08 19:59:00,
2013-04-08 16:00:00,64.2,43.6,29.97,SSE,158,2.7,6.3,47,0.00,,SKC,0.00,VWS V14.01,2013-04-08 20:00:00,
2013-04-08 16:01:00,64.2,43.6,29.97,SE,135,4.0,6.3,47,0.00,,SKC,0.00,VWS V14.01,2013-04-08 20:01:00,
2013-04-08 16:02:00,64.0,43.4,29.97,WSW,248,0.9,6.3,47,0.00,,SKC,0.00,VWS V14.01,2013-04-08 20:02:00,
2013-04-08 16:03:00,64.0,43.4,29.97,SE,135,1.3,6.3,47,0.00,,SKC,0.00,VWS V14.01,2013-04-08 20:03:00,
2013-04-08 16:04:00,64.0,43.4,29.97,South,180,3.6,5.4,47,0.00,,SKC,0.00,VWS V14.01,2013-04-08 20:04:00,
2013-04-08 16:05:00,64.0,43.4,29.97,SE,135,3.1,5.4,47,0.00,,SKC,0.00,VWS V14.01,2013-04-08 20:05:00,
2013-04-08 16:06:00,64.0,43.4,29.97,SE,135,3.4,5.4,47,0.00,,SKC,0.00,VWS V14.01,2013-04-08 20:06:00,
2013-04-08 16:07:00,64.0,43.4,29.97,SE,135,4.7,5.4,47,0.00,,SKC,0.00,VWS V14.01,2013-04-08 20:07:00,
2013-04-08 16:08:00,64.0,43.4,29.97,SE,135,6.3,6.3,47,0.00,,SKC,0.00,VWS V14.01,2013-04-08 20:08:00,
2013-04-08 16:09:00,64.0,44.0,29.97,SE,135,5.4,6.3,48,0.00,,SKC,0.00,VWS V14.01,2013-04-08 20:09:00,
2013-04-08 16:10:00,63.9,43.8,29.97,SE,135,4.3,6.3,48,0.00,,SKC,0.00,VWS V14.01,2013-04-08 20:10:00,
2013-04-08 16:11:00,63.9,43.8,29.97,ESE,112,5.8,6.3,48,0.00,,SKC,0.00,VWS V14.01,2013-04-08 20:11:00,
2013-04-08 16:12:00,63.9,43.8,29.97,East,90,5.6,6.3,48,0.00,,SKC,0.00,VWS V14.01,2013-04-08 20:12:00,
2013-04-08 16:13:00,63.7,43.6,29.97,SE,135,4.9,6.3,48,0.00,,SKC,0.00,VWS V14.01,2013-04-08 20:13:00,
2013-04-08 16:14:00,63.7,43.6,29.97,ESE,112,6.0,6.3,48,0.00,,SKC,0.00,VWS V14.01,2013-04-08 20:14:00,
2013-04-08 16:15:00,63.7,43.6,29.97,SE,135,7.6,7.6,48,0.00,,SKC,0.00,VWS V14.01,2013-04-08 20:15:00,
2013-04-08 16:16:00,63.7,43.6,29.97,SE,135,8.7,8.7,48,0.00,,SKC,0.00,VWS V14.01,2013-04-08 20:16:00,
2013-04-08 16:17:00,63.5,43.5,29.97,SE,135,5.4,8.7,48,0.00,,SKC,0.00,VWS V14.01,2013-04-08 20:17:00,
2013-04-08 16:18:00,63.5,43.5,29.97,South,180,4.3,8.7,48,0.00,,SKC,0.00,VWS V14.01,2013-04-08 20:18:00,
2013-04-08 16:19:00,63.5,43.5,29.97,SE,135,8.7,8.7,48,0.00,,SKC,0.00,VWS V14.01,2013-04-08 20:19:00,
2013-04-08 16:20:00,63.3,43.3,29.97,SE,135,4.9,8.7,48,0.00,,SKC,0.00,VWS V14.01,2013-04-08 20:20:00,
2013-04-08 16:21:00,63.3,43.3,29.97,SE,135,3.4,8.7,48,0.00,,SKC,0.00,VWS V14.01,2013-04-08 20:21:00,
2013-04-08 16:22:00,63.3,43.3,29.97,SE,135,5.4,8.7,48,0.00,,SKC,0.00,VWS V14.01,2013-04-08 20:22:00,
2013-04-08 16:23:00,63.3,43.3,29.97,SE,135,5.6,8.7,48,0.00,,SKC,0.00,VWS V14.01,2013-04-08 20:23:00,
2013-04-08 16:24:00,63.3,43.3,29.97,SE,135,8.1,8.7,48,0.00,,SKC,0.00,VWS V14.01,2013-04-08 20:24:00,
2013-04-08 16:25:00,63.1,43.2,29.97,SE,135,8.5,8.7,48,0.00,,SKC,0.00,VWS V14.01,2013-04-08 20:25:00,
2013-04-08 16:26:00,63.1,43.2,29.97,ESE,112,7.8,8.7,48,0.00,,SKC,0.00,VWS V14.01,2013-04-08 20:26:00,
2013-04-08 16:34:00,62.6,43.2,29.97,SE,135,3.8,8.7,49,0.00,,SKC,0.00,VWS V14.01,2013-04-08 20:34:00,
2013-04-08 16:35:00,62.6,43.2,29.97,SSE,158,2.7,8.7,49,0.00,,SKC,0.00,VWS V14.01,2013-04-08 20:35:00,
2013-04-08 16:36:00,62.6,43.2,29.97,SE,135,2.9,8.7,49,0.00,,SKC,0.00,VWS V14.01,2013-04-08 20:36:00,
2013-04-08 16:37:00,62.6,43.2,29.97,SE,135,3.4,8.7,49,0.00,,SKC,0.00,VWS V14.01,2013-04-08 20:37:00,
2013-04-08 16:38:00,62.6,43.2,29.97,SE,135,5.4,8.7,49,0.00,,SKC,0.00,VWS V14.01,2013-04-08 20:38:00,
2013-04-08 16:39:00,62.6,43.2,29.97,SE,135,5.6,8.7,49,0.00,,SKC,0.00,VWS V14.01,2013-04-08 20:39:00,
2013-04-08 16:40:00,62.6,43.2,29.97,SE,135,5.4,8.7,49,0.00,,SKC,0.00,VWS V14.01,2013-04-08 20:40:00,
2013-04-08 16:41:00,62.6,43.2,29.97,SE,135,7.4,8.7,49,0.00,,SKC,0.00,VWS V14.01,2013-04-08 20:41:00,
2013-04-08 16:42:00,62.4,43.5,29.97,SE,135,5.4,8.7,50,0.00,,SKC,0.00,VWS V14.01,2013-04-08 20:42:00,
2013-04-08 16:43:00,62.4,43.5,29.97,SSE,158,6.0,8.7,50,0.00,,SKC,0.00,VWS V14.01,2013-04-08 20:43:00,
2013-04-08 16:44:00,62.4,43.5,29.97,SSE,158,3.8,8.7,50,0.00,,SKC,0.00,VWS V14.01,2013-04-08 20:44:00,
2013-04-08 16:45:00,62.2,43.4,29.97,SSE,158,3.8,8.7,50,0.00,,SKC,0.00,VWS V14.01,2013-04-08 20:45:00,
2013-04-08 16:46:00,62.2,43.4,29.97,SSE,158,3.4,8.5,50,0.00,,SKC,0.00,VWS V14.01,2013-04-08 20:46:00,
2013-04-08 16:47:00,62.2,43.4,29.97,SSE,158,4.3,8.5,50,0.00,,SKC,0.00,VWS V14.01,2013-04-08 20:47:00,
2013-04-08 16:48:00,62.1,43.2,29.97,SE,135,4.3,8.5,50,0.00,,SKC,0.00,VWS V14.01,2013-04-08 20:48:00,
2013-04-08 16:49:00,62.1,43.2,29.97,SSE,158,3.4,8.5,50,0.00,,SKC,0.00,VWS V14.01,2013-04-08 20:49:00,
2013-04-08 16:50:00,62.1,43.2,29.97,SSE,158,4.7,8.5,50,0.00,,SKC,0.00,VWS V14.01,2013-04-08 20:50:00,
2013-04-08 16:51:00,62.1,43.2,29.97,SE,135,3.6,8.5,50,0.00,,SKC,0.00,VWS V14.01,2013-04-08 20:51:00,
2013-04-08 16:52:00,61.9,43.1,29.97,SE,135,3.8,7.8,50,0.00,,SKC,0.00,VWS V14.01,2013-04-08 20:52:00,
2013-04-08 16:53:00,61.9,43.1,29.97,SSE,158,4.9,7.4,50,0.00,,SKC,0.00,VWS V14.01,2013-04-08 20:53:00,
2013-04-08 16:54:00,61.9,43.1,29.97,SSE,158,4.3,7.4,50,0.00,,SKC,0.00,VWS V14.01,2013-04-08 20:54:00,
2013-04-08 16:55:00,61.9,43.1,29.97,South,180,2.5,7.4,50,0.00,,SKC,0.00,VWS V14.01,2013-04-08 20:55:00,
2013-04-08 16:56:00,61.9,43.1,29.97,SSE,158,4.3,7.4,50,0.00,,SKC,0.00,VWS V14.01,2013-04-08 20:56:00,
2013-04-08 16:57:00,61.9,43.1,29.97,SE,135,3.1,7.4,50,0.00,,SKC,0.00,VWS V14.01,2013-04-08 20:57:00,
2013-04-08 16:58:00,61.9,43.1,29.94,SSE,158,2.5,7.4,50,0.00,,SKC,0.00,VWS V14.01,2013-04-08 20:58:00,
2013-04-08 16:59:00,61.7,42.9,29.94,SSE,158,3.6,7.4,50,0.00,,SKC,0.00,VWS V14.01,2013-04-08 20:59:00,
2013-04-08 17:00:00,61.7,42.9,29.94,South,180,1.6,7.4,50,0.00,,SKC,0.00,VWS V14.01,2013-04-08 21:00:00,
2013-04-08 17:01:00,61.7,42.9,29.94,SE,135,3.6,6.0,50,0.00,,SKC,0.00,VWS V14.01,2013-04-08 21:01:00,
2013-04-08 17:02:00,61.7,42.9,29.94,South,180,2.9,6.0,50,0.00,,SKC,0.00,VWS V14.01,2013-04-08 21:02:00,
2013-04-08 17:03:00,61.7,42.9,29.94,SE,135,0.9,4.9,50,0.00,,SKC,0.00,VWS V14.01,2013-04-08 21:03:00,
2013-04-08 17:04:00,61.7,42.9,29.94,SE,135,3.4,4.9,50,0.00,,SKC,0.00,VWS V14.01,2013-04-08 21:04:00,
2013-04-08 17:05:00,61.7,42.9,29.94,SSE,158,3.6,4.9,50,0.00,,SKC,0.00,VWS V14.01,2013-04-08 21:05:00,
2013-04-08 17:06:00,61.5,42.7,29.94,SE,135,2.9,4.9,50,0.00,,SKC,0.00,VWS V14.01,2013-04-08 21:06:00,
2013-04-08 17:07:00,61.5,42.7,29.94,South,180,3.1,4.9,50,0.00,,SKC,0.00,VWS V14.01,2013-04-08 21:07:00,
2013-04-08 17:08:00,61.5,42.7,29.94,SSE,158,4.9,4.9,50,0.00,,SKC,0.00,VWS V14.01,2013-04-08 21:08:00,
2013-04-08 17:09:00,61.5,42.7,29.94,SE,135,4.7,4.9,50,0.00,,SKC,0.00,VWS V14.01,2013-04-08 21:09:00,
2013-04-08 17:10:00,61.5,42.7,29.94,SE,135,2.2,4.9,50,0.00,,SKC,0.00,VWS V14.01,2013-04-08 21:10:00,
2013-04-08 17:11:00,61.3,42.6,29.94,SSE,158,3.8,4.9,50,0.00,,SKC,0.00,VWS V14.01,2013-04-08 21:11:00,
2013-04-08 17:12:00,61.3,42.6,29.94,SE,135,4.3,4.9,50,0.00,,SKC,0.00,VWS V14.01,2013-04-08 21:12:00,
2013-04-08 17:13:00,61.3,42.6,29.94,SSE,158,3.1,4.9,50,0.00,,SKC,0.00,VWS V14.01,2013-04-08 21:13:00,
2013-04-08 17:14:00,61.3,42.6,29.94,SSE,158,4.3,4.9,50,0.00,,SKC,0.00,VWS V14.01,2013-04-08 21:14:00,
2013-04-08 17:24:00,61.0,42.2,29.94,SSE,158,4.9,4.9,50,0.00,,SKC,0.00,VWS V14.01,2013-04-08 21:24:00,
2013-04-08 17:34:00,60.3,42.1,29.94,SSE,158,4.0,4.9,51,0.00,,SKC,0.00,VWS V14.01,2013-04-08 21:34:00,
2013-04-08 17:35:00,60.3,42.1,29.94,SSE,158,4.0,4.9,51,0.00,,SKC,0.00,VWS V14.01,2013-04-08 21:35:00,
2013-04-08 17:36:00,60.4,42.2,29.97,SE,135,2.9,4.9,51,0.00,,SKC,0.00,VWS V14.01,2013-04-08 21:36:00,
2013-04-08 17:38:00,60.3,42.6,29.97,SE,135,2.9,2.9,52,0.00,,SKC,0.00,VWS V14.01,2013-04-08 21:38:00,
2013-04-08 17:40:00,60.1,42.4,29.97,SSE,158,2.7,2.9,52,0.00,,SKC,0.00,VWS V14.01,2013-04-08 21:40:00,
2013-04-08 17:41:00,60.1,42.4,29.97,SE,135,3.8,3.8,52,0.00,,SKC,0.00,VWS V14.01,2013-04-08 21:41:00,
2013-04-08 17:42:00,60.1,42.4,29.97,SE,135,3.8,3.8,52,0.00,,SKC,0.00,VWS V14.01,2013-04-08 21:42:00,
2013-04-08 17:44:00,59.9,42.2,29.97,SE,135,2.9,4.3,52,0.00,,SKC,0.00,VWS V14.01,2013-04-08 21:44:00,
2013-04-08 17:46:00,59.7,42.1,29.97,SE,135,3.8,3.8,52,0.00,,SKC,0.00,VWS V14.01,2013-04-08 21:46:00,
2013-04-08 17:48:00,59.7,42.1,29.97,SE,135,3.8,3.8,52,0.00,,SKC,0.00,VWS V14.01,2013-04-08 21:48:00,
2013-04-08 17:50:00,59.5,41.9,29.97,SE,135,9.0,9.0,52,0.00,,SKC,0.00,VWS V14.01,2013-04-08 21:50:00,
2013-04-08 17:51:00,59.5,41.9,29.97,SSE,158,5.4,9.0,52,0.00,,SKC,0.00,VWS V14.01,2013-04-08 21:51:00,
2013-04-08 17:52:00,59.5,41.9,29.97,SSE,158,3.4,9.0,52,0.00,,SKC,0.00,VWS V14.01,2013-04-08 21:52:00,
2013-04-08 17:54:00,59.4,41.8,29.97,South,180,4.7,5.6,52,0.00,,SKC,0.00,VWS V14.01,2013-04-08 21:54:00,
2013-04-08 17:56:00,59.4,41.8,29.97,SE,135,3.1,3.4,52,0.00,,SKC,0.00,VWS V14.01,2013-04-08 21:56:00,
2013-04-08 17:58:00,59.2,41.6,29.97,SE,135,4.0,4.7,52,0.00,,SKC,0.00,VWS V14.01,2013-04-08 21:58:00,
2013-04-08 18:00:00,59.2,41.6,29.97,SSE,158,4.0,4.0,52,0.00,,SKC,0.00,VWS V14.01,2013-04-08 22:00:00,
2013-04-08 18:01:00,59.0,41.9,29.97,SSE,158,2.7,7.2,53,0.00,,SKC,0.00,VWS V14.01,2013-04-08 22:01:00,
2013-04-08 18:02:00,59.0,41.9,29.97,SSE,158,2.7,7.2,53,0.00,,SKC,0.00,VWS V14.01,2013-04-08 22:02:00,
2013-04-08 18:04:00,59.0,41.9,29.97,SE,135,4.5,6.0,53,0.00,,SKC,0.00,VWS V14.01,2013-04-08 22:04:00,
2013-04-08 18:06:00,58.6,41.6,29.97,SSE,158,2.7,4.0,53,0.00,,SKC,0.00,VWS V14.01,2013-04-08 22:06:00,
2013-04-08 18:08:00,58.6,41.6,29.97,SSE,158,2.7,3.1,53,0.00,,SKC,0.00,VWS V14.01,2013-04-08 22:08:00,
2013-04-08 18:10:00,58.6,41.6,29.97,SSE,158,3.6,3.6,53,0.00,,SKC,0.00,VWS V14.01,2013-04-08 22:10:00,
2013-04-08 18:12:00,58.5,41.4,29.97,SE,135,4.3,4.3,53,0.00,,SKC,0.00,VWS V14.01,2013-04-08 22:12:00,
2013-04-08 18:14:00,58.1,41.6,29.97,SE,135,5.8,5.8,54,0.00,,SKC,0.00,VWS V14.01,2013-04-08 22:14:00,
2013-04-08 18:16:00,58.1,41.6,29.97,South,180,5.6,6.9,54,0.00,,SKC,0.00,VWS V14.01,2013-04-08 22:16:00,
2013-04-08 18:17:00,58.1,41.6,29.97,South,180,5.6,6.9,54,0.00,,SKC,0.00,VWS V14.01,2013-04-08 22:17:00,
2013-04-08 18:18:00,57.9,41.4,29.97,South,180,5.8,5.8,54,0.00,,SKC,0.00,VWS V14.01,2013-04-08 22:18:00,
2013-04-08 18:20:00,57.9,41.4,29.97,SE,135,4.9,5.8,54,0.00,,SKC,0.00,VWS V14.01,2013-04-08 22:20:00,
2013-04-08 18:22:00,57.6,41.1,29.97,SE,135,5.4,5.4,54,0.00,,SKC,0.00,VWS V14.01,2013-04-08 22:22:00,
2013-04-08 18:24:00,57.6,41.1,29.97,SE,135,5.4,5.6,54,0.00,,SKC,0.00,VWS V14.01,2013-04-08 22:24:00,
2013-04-08 18:26:00,57.4,40.9,29.97,SE,135,5.8,5.8,54,0.00,,SKC,0.00,VWS V14.01,2013-04-08 22:26:00,
2013-04-08 18:27:00,57.2,40.7,29.97,SE,135,5.8,5.8,54,0.00,,SKC,0.00,VWS V14.01,2013-04-08 22:27:00,
2013-04-08 18:28:00,57.0,41.0,29.97,SSE,158,4.3,5.8,55,0.00,,SKC,0.00,VWS V14.01,2013-04-08 22:28:00,
2013-04-08 18:30:00,56.8,40.9,29.97,SSE,158,4.3,4.3,55,0.00,,SKC,0.00,VWS V14.01,2013-04-08 22:30:00,
2013-04-08 18:32:00,56.7,40.7,29.97,SE,135,5.8,5.8,55,0.00,,SKC,0.00,VWS V14.01,2013-04-08 22:32:00,
2013-04-08 18:34:00,56.7,40.7,29.97,SE,135,6.5,6.5,55,0.00,,SKC,0.00,VWS V14.01,2013-04-08 22:34:00,
2013-04-08 18:36:00,56.5,41.0,29.97,SE,135,7.6,7.6,56,0.00,,SKC,0.00,VWS V14.01,2013-04-08 22:36:00,
2013-04-08 18:37:00,56.3,40.8,29.97,SE,135,5.6,7.6,56,0.00,,SKC,0.00,VWS V14.01,2013-04-08 22:37:00,
2013-04-08 18:38:00,56.3,40.8,29.97,SE,135,5.6,7.6,56,0.00,,SKC,0.00,VWS V14.01,2013-04-08 22:38:00,
2013-04-08 18:40:00,55.9,40.5,29.97,SE,135,5.6,5.6,56,0.00,,SKC,0.00,VWS V14.01,2013-04-08 22:40:00,
2013-04-08 18:42:00,55.8,40.8,29.97,SE,135,4.7,4.7,57,0.00,,SKC,0.00,VWS V14.01,2013-04-08 22:42:00,
2013-04-08 18:44:00,55.6,40.6,30.00,SE,135,4.7,4.7,57,0.00,,SKC,0.00,VWS V14.01,2013-04-08 22:44:00,
2013-04-08 18:46:00,55.4,40.4,30.00,SSE,158,4.9,5.4,57,0.00,,SKC,0.00,VWS V14.01,2013-04-08 22:46:00,
2013-04-08 18:47:00,55.4,40.9,30.00,SSE,158,3.1,4.9,58,0.00,,SKC,0.00,VWS V14.01,2013-04-08 22:47:00,
2013-04-08 18:48:00,55.2,40.7,30.00,SSE,158,3.1,4.9,58,0.00,,SKC,0.00,VWS V14.01,2013-04-08 22:48:00,
2013-04-08 18:50:00,55.2,40.7,30.00,SSE,158,3.1,3.1,58,0.00,,SKC,0.00,VWS V14.01,2013-04-08 22:50:00,
2013-04-08 18:52:00,54.9,40.8,30.00,SSE,158,2.7,3.1,59,0.00,,SKC,0.00,VWS V14.01,2013-04-08 22:52:00,
2013-04-08 18:54:00,54.9,41.2,30.00,SSE,158,2.7,2.7,60,0.00,,SKC,0.00,VWS V14.01,2013-04-08 22:54:00,
2013-04-08 18:56:00,54.7,40.7,30.00,SSE,158,2.9,2.9,59,0.00,,SKC,0.00,VWS V14.01,2013-04-08 22:56:00,
2013-04-08 18:57:00,54.7,41.1,30.00,SSE,158,2.9,2.9,60,0.00,,SKC,0.00,VWS V14.01,2013-04-08 22:57:00,
2013-04-08 18:58:00,54.7,41.1,30.00,SSE,158,2.9,2.9,60,0.00,,SKC,0.00,VWS V14.01,2013-04-08 22:58:00,
2013-04-08 19:00:00,54.3,41.2,29.97,SSE,158,2.9,2.9,61,0.00,,SKC,0.00,VWS V14.01,2013-04-08 23:00:00,
2013-04-08 19:02:00,54.3,41.2,29.97,SSE,158,3.8,3.8,61,0.00,,SKC,0.00,VWS V14.01,2013-04-08 23:02:00,
2013-04-08 19:04:00,54.1,41.0,29.97,SSE,158,3.8,4.3,61,0.00,,SKC,0.00,VWS V14.01,2013-04-08 23:04:00,
2013-04-08 19:06:00,54.0,41.2,29.97,SE,135,3.4,3.8,62,0.00,,SKC,0.00,VWS V14.01,2013-04-08 23:06:00,
2013-04-08 19:07:00,54.0,41.2,29.97,SE,135,4.3,4.3,62,0.00,,SKC,0.00,VWS V14.01,2013-04-08 23:07:00,
2013-04-08 19:08:00,54.0,41.2,29.97,SE,135,4.3,4.3,62,0.00,,SKC,0.00,VWS V14.01,2013-04-08 23:08:00,
2013-04-08 19:10:00,53.8,40.7,29.97,SE,135,4.3,4.3,61,0.00,,SKC,0.00,VWS V14.01,2013-04-08 23:10:00,
2013-04-08 19:12:00,53.6,40.9,29.97,SE,135,4.9,4.9,62,0.00,,SKC,0.00,VWS V14.01,2013-04-08 23:12:00,
2013-04-08 19:14:00,53.4,41.2,29.97,SE,135,4.9,5.4,63,0.00,,SKC,0.00,VWS V14.01,2013-04-08 23:14:00,
2013-04-08 19:16:00,53.4,41.2,29.97,SE,135,4.9,4.9,63,0.00,,SKC,0.00,VWS V14.01,2013-04-08 23:16:00,
2013-04-08 19:17:00,53.2,41.0,29.97,SE,135,4.9,4.9,63,0.00,,SKC,0.00,VWS V14.01,2013-04-08 23:17:00,
2013-04-08 19:18:00,53.2,41.0,29.97,SE,135,4.9,4.9,63,0.00,,SKC,0.00,VWS V14.01,2013-04-08 23:18:00,
2013-04-08 19:20:00,53.1,40.8,29.97,SE,135,4.9,4.9,63,0.00,,SKC,0.00,VWS V14.01,2013-04-08 23:20:00,
2013-04-08 19:22:00,52.9,41.0,29.97,SE,135,4.9,4.9,64,0.00,,SKC,0.00,VWS V14.01,2013-04-08 23:22:00,
2013-04-08 19:24:00,52.9,41.5,29.97,ESE,112,4.3,4.9,65,0.00,,SKC,0.00,VWS V14.01,2013-04-08 23:24:00,
2013-04-08 19:26:00,52.7,41.3,29.97,SE,135,5.4,5.4,65,0.00,,SKC,0.00,VWS V14.01,2013-04-08 23:26:00,
2013-04-08 19:27:00,52.7,41.3,29.97,SE,135,3.6,5.4,65,0.00,,SKC,0.00,VWS V14.01,2013-04-08 23:27:00,
2013-04-08 19:28:00,52.7,41.3,29.97,SE,135,3.6,5.4,65,0.00,,SKC,0.00,VWS V14.01,2013-04-08 23:28:00,
2013-04-08 19:30:00,52.5,41.5,29.97,SE,135,3.6,3.6,66,0.00,,SKC,0.00,VWS V14.01,2013-04-08 23:30:00,
2013-04-08 19:32:00,52.3,40.9,29.97,SSE,158,2.9,3.6,65,0.00,,SKC,0.00,VWS V14.01,2013-04-08 23:32:00,
2013-04-08 19:34:00,52.3,40.9,29.97,SSE,158,2.7,2.9,65,0.00,,SKC,0.00,VWS V14.01,2013-04-08 23:34:00,
2013-04-08 19:36:00,52.2,41.2,29.97,SE,135,3.6,3.6,66,0.00,,SKC,0.00,VWS V14.01,2013-04-08 23:36:00,
2013-04-08 19:37:00,52.2,41.2,29.97,SE,135,3.6,3.6,66,0.00,,SKC,0.00,VWS V14.01,2013-04-08 23:37:00,
2013-04-08 19:38:00,52.0,41.0,29.97,SE,135,3.6,3.6,66,0.00,,SKC,0.00,VWS V14.01,2013-04-08 23:38:00,
2013-04-08 19:40:00,52.0,41.4,29.97,SSE,158,3.6,3.6,67,0.00,,SKC,0.00,VWS V14.01,2013-04-08 23:40:00,
2013-04-08 19:42:00,51.8,41.2,29.97,SSE,158,2.5,3.6,67,0.00,,SKC,0.00,VWS V14.01,2013-04-08 23:42:00,
2013-04-08 19:44:00,51.8,41.2,29.97,SSE,158,2.5,2.5,67,0.00,,SKC,0.00,VWS V14.01,2013-04-08 23:44:00,
2013-04-08 19:46:00,51.6,41.4,29.97,SE,135,3.1,3.1,68,0.00,,SKC,0.00,VWS V14.01,2013-04-08 23:46:00,
2013-04-08 19:47:00,51.6,41.4,29.97,SE,135,3.1,3.1,68,0.00,,SKC,0.00,VWS V14.01,2013-04-08 23:47:00,
2013-04-08 19:48:00,51.6,41.4,29.97,SE,135,3.1,3.1,68,0.00,,SKC,0.00,VWS V14.01,2013-04-08 23:48:00,
2013-04-08 19:50:00,51.6,41.0,29.97,SE,135,4.3,4.3,67,0.00,,SKC,0.00,VWS V14.01,2013-04-08 23:50:00,
2013-04-08 19:52:00,51.4,40.9,29.97,SSE,158,4.0,4.3,67,0.00,,SKC,0.00,VWS V14.01,2013-04-08 23:52:00,
2013-04-08 19:54:00,51.4,40.9,29.97,SE,135,4.0,4.0,67,0.00,,SKC,0.00,VWS V14.01,2013-04-08 23:54:00,
2013-04-08 19:56:00,51.3,41.1,29.97,SE,135,3.4,4.0,68,0.00,,SKC,0.00,VWS V14.01,2013-04-08 23:56:00,
2013-04-08 19:57:00,51.1,40.9,29.97,SSE,158,4.0,4.0,68,0.00,,SKC,0.00,VWS V14.01,2013-04-08 23:57:00,
2013-04-08 19:58:00,51.1,40.9,29.97,SSE,158,4.0,4.0,68,0.00,,SKC,0.00,VWS V14.01,2013-04-08 23:58:00,
2013-04-08 20:00:00,51.1,40.9,29.97,SSE,158,4.0,4.0,68,0.00,,SKC,0.00,VWS V14.01,2013-04-09 00:00:00,
2013-04-08 20:02:00,50.9,40.7,29.97,SSE,158,3.8,3.8,68,0.00,,SKC,0.00,VWS V14.01,2013-04-09 00:02:00,
2013-04-08 20:04:00,50.9,41.1,29.97,SSE,158,3.8,3.8,69,0.00,,SKC,0.00,VWS V14.01,2013-04-09 00:04:00,
2013-04-08 20:06:00,50.9,41.1,29.97,SSE,158,3.8,3.8,69,0.00,,SKC,0.00,VWS V14.01,2013-04-09 00:06:00,
2013-04-08 20:07:00,50.9,41.1,29.97,SE,135,3.6,3.8,69,0.00,,SKC,0.00,VWS V14.01,2013-04-09 00:07:00,
2013-04-08 20:08:00,50.7,41.3,29.97,SSE,158,3.6,3.8,70,0.00,,SKC,0.00,VWS V14.01,2013-04-09 00:08:00,
2013-04-08 20:10:00,50.7,41.3,29.97,SSE,158,3.1,3.6,70,0.00,,SKC,0.00,VWS V14.01,2013-04-09 00:10:00,
2013-04-08 20:12:00,50.7,41.3,29.97,SSE,158,3.8,3.8,70,0.00,,SKC,0.00,VWS V14.01,2013-04-09 00:12:00,
2013-04-08 20:14:00,50.7,41.3,29.97,SE,135,3.6,3.8,70,0.00,,SKC,0.00,VWS V14.01,2013-04-09 00:14:00,
2013-04-08 20:16:00,50.7,41.7,29.97,SE,135,3.6,3.6,71,0.00,,SKC,0.00,VWS V14.01,2013-04-09 00:16:00,
2013-04-08 20:17:00,50.7,41.7,29.97,SSE,158,2.5,3.6,71,0.00,,SKC,0.00,VWS V14.01,2013-04-09 00:17:00,
2013-04-08 20:18:00,50.7,41.7,29.97,South,180,1.3,2.7,71,0.00,,SKC,0.00,VWS V14.01,2013-04-09 00:18:00,
2013-04-08 20:20:00,50.7,41.7,29.97,South,180,1.3,1.6,71,0.00,,SKC,0.00,VWS V14.01,2013-04-09 00:20:00,
2013-04-08 20:22:00,50.7,41.7,29.97,SSE,158,2.9,2.9,71,0.00,,SKC,0.00,VWS V14.01,2013-04-09 00:22:00,
2013-04-08 20:24:00,50.7,41.7,29.97,SSE,158,3.4,3.4,71,0.00,,SKC,0.00,VWS V14.01,2013-04-09 00:24:00,
2013-04-08 20:26:00,50.7,41.7,29.97,SSE,158,3.4,3.6,71,0.00,,SKC,0.00,VWS V14.01,2013-04-09 00:26:00,
2013-04-08 20:27:00,50.7,41.7,29.97,SSE,158,3.4,3.4,71,0.00,,SKC,0.00,VWS V14.01,2013-04-09 00:27:00,
2013-04-08 20:28:00,50.7,41.7,29.97,SE,135,3.4,3.4,71,0.00,,SKC,0.00,VWS V14.01,2013-04-09 00:28:00,
2013-04-08 20:30:00,50.7,41.7,30.00,SE,135,3.4,3.8,71,0.00,,SKC,0.00,VWS V14.01,2013-04-09 00:30:00,
2013-04-08 20:32:00,50.7,41.7,30.00,SE,135,3.8,4.0,71,0.00,,SKC,0.00,VWS V14.01,2013-04-09 00:32:00,
2013-04-08 20:34:00,50.7,41.7,30.00,SE,135,3.4,3.8,71,0.00,,SKC,0.00,VWS V14.01,2013-04-09 00:34:00,
2013-04-08 20:36:00,50.7,41.7,30.00,SE,135,4.0,4.3,71,0.00,,SKC,0.00,VWS V14.01,2013-04-09 00:36:00,
2013-04-08 20:37:00,50.7,41.7,30.00,SE,135,3.4,4.3,71,0.00,,SKC,0.00,VWS V14.01,2013-04-09 00:37:00,
2013-04-08 20:38:00,50.5,41.5,30.00,SE,135,4.3,4.3,71,0.00,,SKC,0.00,VWS V14.01,2013-04-09 00:38:00,
2013-04-08 20:40:00,50.5,41.9,30.00,SSE,158,3.6,4.0,72,0.00,,SKC,0.00,VWS V14.01,2013-04-09 00:40:00,
2013-04-08 20:42:00,50.5,41.9,30.00,SE,135,2.9,3.6,72,0.00,,SKC,0.00,VWS V14.01,2013-04-09 00:42:00,
2013-04-08 20:44:00,50.5,41.9,30.00,SSE,158,2.9,2.9,72,0.00,,SKC,0.00,VWS V14.01,2013-04-09 00:44:00,
2013-04-08 20:46:00,50.4,41.7,30.00,SE,135,2.5,2.9,72,0.00,,SKC,0.00,VWS V14.01,2013-04-09 00:46:00,
2013-04-08 20:47:00,50.4,41.7,30.00,SE,135,2.7,2.7,72,0.00,,SKC,0.00,VWS V14.01,2013-04-09 00:47:00,
2013-04-08 20:48:00,50.4,41.7,30.00,SE,135,2.7,2.7,72,0.00,,SKC,0.00,VWS V14.01,2013-04-09 00:48:00,
2013-04-08 20:50:00,50.4,41.7,30.00,SE,135,2.9,2.9,72,0.00,,SKC,0.00,VWS V14.01,2013-04-09 00:50:00,
2013-04-08 20:52:00,50.2,41.9,30.00,SSE,158,3.4,3.4,73,0.00,,SKC,0.00,VWS V14.01,2013-04-09 00:52:00,
2013-04-08 20:54:00,50.2,41.9,30.00,SSE,158,2.7,3.4,73,0.00,,SKC,0.00,VWS V14.01,2013-04-09 00:54:00,
2013-04-08 20:56:00,50.2,41.9,30.00,SE,135,3.4,3.4,73,0.00,,SKC,0.00,VWS V14.01,2013-04-09 00:56:00,
2013-04-08 20:57:00,50.2,41.5,30.00,SE,135,3.8,4.0,72,0.00,,SKC,0.00,VWS V14.01,2013-04-09 00:57:00,
2013-04-08 20:58:00,50.2,41.5,30.00,SE,135,3.8,4.0,72,0.00,,SKC,0.00,VWS V14.01,2013-04-09 00:58:00,
2013-04-08 21:00:00,50.0,41.7,30.03,SE,135,4.0,4.0,73,0.00,,SKC,0.00,VWS V14.01,2013-04-09 01:00:00,
2013-04-08 21:02:00,50.0,41.7,30.03,SE,135,3.6,4.7,73,0.00,,SKC,0.00,VWS V14.01,2013-04-09 01:02:00,
2013-04-08 21:04:00,50.0,41.7,30.03,SE,135,3.6,3.6,73,0.00,,SKC,0.00,VWS V14.01,2013-04-09 01:04:00,
2013-04-08 21:06:00,50.0,41.7,30.03,SE,135,3.6,4.3,73,0.00,,SKC,0.00,VWS V14.01,2013-04-09 01:06:00,
2013-04-08 21:07:00,50.0,41.7,30.03,SE,135,3.6,3.8,73,0.00,,SKC,0.00,VWS V14.01,2013-04-09 01:07:00,
2013-04-08 21:08:00,50.0,41.7,30.03,SE,135,3.6,3.8,73,0.00,,SKC,0.00,VWS V14.01,2013-04-09 01:08:00,
2013-04-08 21:10:00,49.8,41.9,30.03,SE,135,4.0,4.0,74,0.00,,SKC,0.00,VWS V14.01,2013-04-09 01:10:00,
2013-04-08 21:12:00,50.0,41.7,30.03,SE,135,4.3,4.3,73,0.00,,SKC,0.00,VWS V14.01,2013-04-09 01:12:00,
2013-04-08 21:14:00,50.0,41.7,30.00,SE,135,3.8,4.3,73,0.00,,SKC,0.00,VWS V14.01,2013-04-09 01:14:00,
2013-04-08 21:16:00,50.0,42.0,30.00,SE,135,4.3,4.3,74,0.00,,SKC,0.00,VWS V14.01,2013-04-09 01:16:00,
2013-04-08 21:18:00,50.0,42.0,30.00,SE,135,3.4,3.8,74,0.00,,SKC,0.00,VWS V14.01,2013-04-09 01:18:00,
2013-04-08 21:20:00,50.0,42.0,30.00,SSE,158,3.6,3.6,74,0.00,,SKC,0.00,VWS V14.01,2013-04-09 01:20:00,
2013-04-08 21:22:00,50.0,42.0,30.00,SE,135,3.4,3.4,74,0.00,,SKC,0.00,VWS V14.01,2013-04-09 01:22:00,
2013-04-08 21:23:00,50.0,42.0,30.00,SE,135,3.6,3.8,74,0.00,,SKC,0.00,VWS V14.01,2013-04-09 01:23:00,
2013-04-08 21:24:00,50.2,42.2,30.00,SSE,158,3.1,4.0,74,0.00,,SKC,0.00,VWS V14.01,2013-04-09 01:24:00,
2013-04-08 21:26:00,50.2,42.2,30.00,SE,135,4.3,4.3,74,0.00,,SKC,0.00,VWS V14.01,2013-04-09 01:26:00,
2013-04-08 21:28:00,50.2,42.2,30.00,SSE,158,4.3,4.3,74,0.00,,SKC,0.00,VWS V14.01,2013-04-09 01:28:00,
2013-04-08 21:30:00,50.2,42.6,30.00,SE,135,3.4,3.6,75,0.00,,SKC,0.00,VWS V14.01,2013-04-09 01:30:00,
2013-04-08 21:32:00,50.4,42.8,30.00,South,180,2.9,3.4,75,0.00,,SKC,0.00,VWS V14.01,2013-04-09 01:32:00,
2013-04-08 21:33:00,50.4,42.8,30.00,SSE,158,2.7,3.1,75,0.00,,SKC,0.00,VWS V14.01,2013-04-09 01:33:00,
2013-04-08 21:34:00,50.4,42.8,30.00,SSE,158,3.1,3.1,75,0.00,,SKC,0.00,VWS V14.01,2013-04-09 01:34:00,
2013-04-08 21:36:00,50.4,42.8,30.00,SSE,158,3.1,3.1,75,0.00,,SKC,0.00,VWS V14.01,2013-04-09 01:36:00,
2013-04-08 21:38:00,50.4,42.8,30.00,SE,135,3.8,4.0,75,0.00,,SKC,0.00,VWS V14.01,2013-04-09 01:38:00,
2013-04-08 21:40:00,50.4,42.8,30.00,SE,135,3.8,4.3,75,0.00,,SKC,0.00,VWS V14.01,2013-04-09 01:40:00,
2013-04-08 21:42:00,50.4,42.8,30.00,SSE,158,4.0,5.4,75,0.00,,SKC,0.00,VWS V14.01,2013-04-09 01:42:00,
2013-04-08 21:43:00,50.4,42.8,30.00,SE,135,5.6,5.6,75,0.00,,SKC,0.00,VWS V14.01,2013-04-09 01:43:00,
2013-04-08 21:44:00,50.4,42.8,30.03,SSE,158,4.3,5.6,75,0.00,,SKC,0.00,VWS V14.01,2013-04-09 01:44:00,
2013-04-08 21:46:00,50.4,42.8,30.03,SE,135,4.3,4.9,75,0.00,,SKC,0.00,VWS V14.01,2013-04-09 01:46:00,
2013-04-08 21:48:00,50.4,42.8,30.03,South,180,3.6,5.6,75,0.00,,SKC,0.00,VWS V14.01,2013-04-09 01:48:00,
2013-04-08 21:50:00,50.4,42.8,30.03,SSE,158,3.8,5.8,75,0.00,,SKC,0.00,VWS V14.01,2013-04-09 01:50:00,
2013-04-08 21:52:00,50.5,42.9,30.03,SSE,158,4.3,4.3,75,0.00,,SKC,0.00,VWS V14.01,2013-04-09 01:52:00,
2013-04-08 21:53:00,50.4,42.8,30.03,SE,135,4.0,4.3,75,0.00,,SKC,0.00,VWS V14.01,2013-04-09 01:53:00,
2013-04-08 21:54:00,50.4,42.8,30.03,SSE,158,4.0,5.6,75,0.00,,SKC,0.00,VWS V14.01,2013-04-09 01:54:00,
2013-04-08 21:56:00,50.5,42.9,30.03,SE,135,4.0,5.4,75,0.00,,SKC,0.00,VWS V14.01,2013-04-09 01:56:00,
2013-04-08 21:58:00,50.5,42.9,30.03,SSE,158,6.0,6.7,75,0.00,,SKC,0.00,VWS V14.01,2013-04-09 01:58:00,
2013-04-08 22:00:00,50.5,42.9,30.00,SSE,158,4.7,6.3,75,0.00,,SKC,0.00,VWS V14.01,2013-04-09 02:00:00,
2013-04-08 22:02:00,50.5,42.9,30.00,SSE,158,4.3,4.7,75,0.00,,SKC,0.00,VWS V14.01,2013-04-09 02:02:00,
2013-04-08 22:03:00,50.5,42.9,30.00,SSE,158,3.8,4.7,75,0.00,,SKC,0.00,VWS V14.01,2013-04-09 02:03:00,
2013-04-08 22:04:00,50.5,42.9,30.00,SSE,158,3.8,4.3,75,0.00,,SKC,0.00,VWS V14.01,2013-04-09 02:04:00,
2013-04-08 22:06:00,50.5,43.3,30.00,SSE,158,2.9,5.6,76,0.00,,SKC,0.00,VWS V14.01,2013-04-09 02:06:00,
2013-04-08 22:08:00,50.5,43.3,30.00,SE,135,4.0,4.0,76,0.00,,SKC,0.00,VWS V14.01,2013-04-09 02:08:00,
2013-04-08 22:10:00,50.5,42.9,30.00,SE,135,3.8,4.3,75,0.00,,SKC,0.00,VWS V14.01,2013-04-09 02:10:00,
2013-04-08 22:12:00,50.5,42.9,30.00,SSE,158,3.8,5.6,75,0.00,,SKC,0.00,VWS V14.01,2013-04-09 02:12:00,
2013-04-08 22:13:00,50.5,42.9,30.00,SSE,158,4.3,5.6,75,0.00,,SKC,0.00,VWS V14.01,2013-04-09 02:13:00,
2013-04-08 22:14:00,50.5,43.3,30.03,SE,135,4.9,4.9,76,0.00,,SKC,0.00,VWS V14.01,2013-04-09 02:14:00,
2013-04-08 22:16:00,50.5,42.9,30.03,SSE,158,5.4,5.8,75,0.00,,SKC,0.00,VWS V14.01,2013-04-09 02:16:00,
2013-04-08 22:18:00,50.4,43.1,30.03,SE,135,6.0,6.5,76,0.00,,SKC,0.00,VWS V14.01,2013-04-09 02:18:00,
2013-04-08 22:20:00,50.4,43.1,30.03,SE,135,5.6,7.2,76,0.00,,SKC,0.00,VWS V14.01,2013-04-09 02:20:00,
2013-04-08 22:22:00,50.4,43.1,30.03,SE,135,5.8,6.9,76,0.00,,SKC,0.00,VWS V14.01,2013-04-09 02:22:00,
2013-04-08 22:23:00,50.4,43.1,30.03,SE,135,6.5,8.7,76,0.00,,SKC,0.00,VWS V14.01,2013-04-09 02:23:00,
2013-04-08 22:24:00,50.4,43.1,30.03,SE,135,7.4,8.7,76,0.00,,SKC,0.00,VWS V14.01,2013-04-09 02:24:00,
2013-04-08 22:26:00,50.4,43.1,30.03,SE,135,8.1,8.1,76,0.00,,SKC,0.00,VWS V14.01,2013-04-09 02:26:00,
2013-04-08 22:28:00,50.4,43.1,30.03,SE,135,7.4,7.8,76,0.00,,SKC,0.00,VWS V14.01,2013-04-09 02:28:00,
2013-04-08 22:30:00,50.4,43.1,30.03,SE,135,8.5,8.5,76,0.00,,SKC,0.00,VWS V14.01,2013-04-09 02:30:00,
2013-04-08 22:32:00,50.4,43.1,30.03,SE,135,8.5,8.5,76,0.00,,SKC,0.00,VWS V14.01,2013-04-09 02:32:00,
2013-04-08 22:33:00,50.4,43.1,30.03,SE,135,7.2,8.5,76,0.00,,SKC,0.00,VWS V14.01,2013-04-09 02:33:00,
2013-04-08 22:34:00,50.4,43.4,30.03,SE,135,8.1,8.1,77,0.00,,SKC,0.00,VWS V14.01,2013-04-09 02:34:00,
2013-04-08 22:36:00,50.4,43.4,30.03,SE,135,6.3,8.1,77,0.00,,SKC,0.00,VWS V14.01,2013-04-09 02:36:00,
2013-04-08 22:38:00,50.2,43.3,30.03,SSE,158,4.9,8.7,77,0.00,,SKC,0.00,VWS V14.01,2013-04-09 02:38:00,
2013-04-08 22:40:00,50.2,43.3,30.03,SE,135,9.0,9.0,77,0.00,,SKC,0.00,VWS V14.01,2013-04-09 02:40:00,
2013-04-08 22:42:00,50.2,43.3,30.03,SE,135,6.0,8.1,77,0.00,,SKC,0.00,VWS V14.01,2013-04-09 02:42:00,
2013-04-08 22:43:00,50.2,43.3,30.03,SSE,158,5.8,6.7,77,0.00,,SKC,0.00,VWS V14.01,2013-04-09 02:43:00,
2013-04-08 22:44:00,50.2,43.6,30.03,SE,135,6.3,7.6,78,0.00,,SKC,0.00,VWS V14.01,2013-04-09 02:44:00,
2013-04-08 22:46:00,50.2,43.6,30.03,SE,135,6.0,6.0,78,0.00,,SKC,0.00,VWS V14.01,2013-04-09 02:46:00,
2013-04-08 22:48:00,50.2,43.6,30.03,SE,135,6.0,7.4,78,0.00,,SKC,0.00,VWS V14.01,2013-04-09 02:48:00,
2013-04-08 22:50:00,50.2,43.6,30.03,SE,135,6.5,7.8,78,0.00,,SKC,0.00,VWS V14.01,2013-04-09 02:50:00,
2013-04-08 22:52:00,50.0,43.4,30.03,SE,135,7.4,8.7,78,0.00,,SKC,0.00,VWS V14.01,2013-04-09 02:52:00,
2013-04-08 22:53:00,50.0,43.4,30.03,SE,135,4.9,7.4,78,0.00,,SKC,0.00,VWS V14.01,2013-04-09 02:53:00,
2013-04-08 22:54:00,50.0,43.4,30.03,SE,135,5.4,6.5,78,0.00,,SKC,0.00,VWS V14.01,2013-04-09 02:54:00,
2013-04-08 22:56:00,50.0,43.4,30.03,SE,135,6.5,6.7,78,0.00,,SKC,0.00,VWS V14.01,2013-04-09 02:56:00,
2013-04-08 22:58:00,50.0,43.4,30.00,SE,135,6.5,8.5,78,0.00,,SKC,0.00,VWS V14.01,2013-04-09 02:58:00,
2013-04-08 23:00:00,50.0,43.4,30.00,ESE,112,6.5,7.6,78,0.00,,SKC,0.00,VWS V14.01,2013-04-09 03:00:00,
2013-04-08 23:02:00,50.0,43.4,30.00,SE,135,7.6,8.5,78,0.00,,SKC,0.00,VWS V14.01,2013-04-09 03:02:00,
2013-04-08 23:03:00,49.8,43.6,30.00,SE,135,5.6,8.1,79,0.00,,SKC,0.00,VWS V14.01,2013-04-09 03:03:00,
2013-04-08 23:04:00,49.8,43.6,30.00,SE,135,5.6,8.1,79,0.00,,SKC,0.00,VWS V14.01,2013-04-09 03:04:00,
2013-04-08 23:06:00,49.8,43.6,30.00,SE,135,8.7,8.7,79,0.00,,SKC,0.00,VWS V14.01,2013-04-09 03:06:00,
2013-04-08 23:08:00,49.8,43.6,30.00,SE,135,6.0,7.4,79,0.00,,SKC,0.00,VWS V14.01,2013-04-09 03:08:00,
2013-04-08 23:10:00,49.8,43.9,30.00,SE,135,6.0,8.7,80,0.00,,SKC,0.00,VWS V14.01,2013-04-09 03:10:00,
2013-04-08 23:12:00,49.8,43.9,30.00,SE,135,6.5,9.8,80,0.00,,SKC,0.00,VWS V14.01,2013-04-09 03:12:00,
2013-04-08 23:13:00,49.8,43.9,29.97,SE,135,9.6,10.5,80,0.00,,SKC,0.00,VWS V14.01,2013-04-09 03:13:00,
2013-04-08 23:14:00,49.8,43.9,29.97,SE,135,8.1,10.5,80,0.00,,SKC,0.00,VWS V14.01,2013-04-09 03:14:00,
2013-04-08 23:16:00,49.8,43.9,29.97,SE,135,7.8,8.1,80,0.00,,SKC,0.00,VWS V14.01,2013-04-09 03:16:00,
2013-04-08 23:18:00,49.6,44.1,29.97,SE,135,9.0,9.0,81,0.00,,SKC,0.00,VWS V14.01,2013-04-09 03:18:00,
2013-04-08 23:20:00,49.6,44.1,29.97,East,90,7.4,10.5,81,0.00,,SKC,0.00,VWS V14.01,2013-04-09 03:20:00,
2013-04-08 23:22:00,49.6,44.1,29.97,SE,135,5.8,10.3,81,0.00,,SKC,0.00,VWS V14.01,2013-04-09 03:22:00,
2013-04-08 23:23:00,49.6,44.1,29.97,SE,135,6.5,8.5,81,0.00,,SKC,0.00,VWS V14.01,2013-04-09 03:23:00,
2013-04-08 23:24:00,49.6,44.1,29.97,SE,135,6.5,8.5,81,0.00,,SKC,0.00,VWS V14.01,2013-04-09 03:24:00,
2013-04-08 23:26:00,49.6,44.1,29.97,SE,135,6.5,7.2,81,0.00,,SKC,0.00,VWS V14.01,2013-04-09 03:26:00,
2013-04-08 23:28:00,49.6,44.1,29.97,SE,135,5.6,8.5,81,0.00,,SKC,0.00,VWS V14.01,2013-04-09 03:28:00,
2013-04-08 23:30:00,49.6,44.1,29.97,SE,135,5.6,9.0,81,0.00,,SKC,0.00,VWS V14.01,2013-04-09 03:30:00,
2013-04-08 23:32:00,49.5,43.9,29.97,SSE,158,4.9,8.5,81,0.00,,SKC,0.00,VWS V14.01,2013-04-09 03:32:00,
2013-04-08 23:33:00,49.5,43.9,29.97,SE,135,7.2,8.7,81,0.00,,SKC,0.00,VWS V14.01,2013-04-09 03:33:00,
2013-04-08 23:34:00,49.5,43.9,29.97,SE,135,7.2,8.7,81,0.00,,SKC,0.00,VWS V14.01,2013-04-09 03:34:00,
2013-04-08 23:36:00,49.5,43.9,29.97,SE,135,6.3,6.3,81,0.00,,SKC,0.00,VWS V14.01,2013-04-09 03:36:00,
2013-04-08 23:38:00,49.5,43.9,29.97,SSE,158,4.7,6.5,81,0.00,,SKC,0.00,VWS V14.01,2013-04-09 03:38:00,
2013-04-08 23:40:00,49.3,43.7,29.97,South,180,5.4,7.4,81,0.00,,SKC,0.00,VWS V14.01,2013-04-09 03:40:00,
2013-04-08 23:42:00,49.3,43.7,29.97,SSE,158,4.9,7.4,81,0.00,,SKC,0.00,VWS V14.01,2013-04-09 03:42:00,
2013-04-08 23:43:00,49.3,43.7,30.00,SE,135,5.4,5.4,81,0.00,,SKC,0.00,VWS V14.01,2013-04-09 03:43:00,
2013-04-08 23:44:00,49.3,43.7,30.00,SE,135,3.8,5.4,81,0.00,,SKC,0.00,VWS V14.01,2013-04-09 03:44:00,
2013-04-08 23:46:00,49.3,43.7,30.00,SE,135,6.0,6.0,81,0.00,,SKC,0.00,VWS V14.01,2013-04-09 03:46:00,
2013-04-08 23:48:00,49.1,43.5,30.00,SE,135,7.6,7.6,81,0.00,,SKC,0.00,VWS V14.01,2013-04-09 03:48:00,
2013-04-08 23:49:00,49.1,43.5,30.00,SSE,158,6.3,7.6,81,0.00,,SKC,0.00,VWS V14.01,2013-04-09 03:49:00,
2013-04-08 23:50:00,49.1,43.8,30.00,SE,135,5.8,7.2,82,0.00,,SKC,0.00,VWS V14.01,2013-04-09 03:50:00,
2013-04-08 23:52:00,49.1,43.8,30.00,SE,135,6.5,6.5,82,0.00,,SKC,0.00,VWS V14.01,2013-04-09 03:52:00,
2013-04-08 23:54:00,49.1,43.8,30.00,SE,135,7.6,7.8,82,0.00,,SKC,0.00,VWS V14.01,2013-04-09 03:54:00,
2013-04-08 23:56:00,49.1,43.8,30.00,SE,135,6.5,7.4,82,0.00,,SKC,0.00,VWS V14.01,2013-04-09 03:56:00,
2013-04-08 23:58:00,48.9,43.7,30.00,ESE,112,7.8,7.8,82,0.00,,SKC,0.00,VWS V14.01,2013-04-09 03:58:00,
2013-04-08 23:59:00,48.9,43.7,29.97,SSE,158,6.0,7.8,82,0.00,,SKC,0.00,VWS V14.01,2013-04-09 03:59:00,